| time (UTC) | temp F | wind direction | speed MPH | gust MPH | rain 1hr in | rain 24hr in | rain mn in | humidity % | barometer mb |
| 20260508115429 | 51 | 1 | 10.0 | 16.0 | 0.00 | 0.00 | 0.00 | 100 | 958.4 |
| 20260508115326 | 52 | 2 | 10.0 | 16.0 | 0.00 | 0.00 | 0.00 | 100 | 958.5 |
| 20260508115123 | 51 | 359 | 11.0 | 16.0 | 0.00 | 0.00 | 0.00 | 100 | 958.4 |
| 20260508114919 | 51 | 358 | 12.0 | 18.0 | 0.00 | 0.00 | 0.00 | 100 | 958.5 |
| 20260508114819 | 51 | 359 | 13.0 | 18.0 | 0.00 | 0.00 | 0.00 | 100 | 958.5 |
| 20260508114716 | 51 | 2 | 13.0 | 18.0 | 0.00 | 0.00 | 0.00 | 100 | 958.5 |
| 20260508114514 | 51 | 359 | 10.0 | 18.0 | 0.00 | 0.00 | 0.00 | 100 | 958.6 |
| 20260508114310 | 52 | 348 | 8.0 | 13.0 | 0.00 | 0.00 | 0.00 | 100 | 958.5 |
| 20260508114210 | 51 | 346 | 8.0 | 13.0 | 0.00 | 0.00 | 0.00 | 100 | 958.5 |
| 20260508114107 | 51 | 351 | 8.0 | 13.0 | 0.00 | 0.00 | 0.00 | 100 | 958.5 |
| 20260508113904 | 51 | 3 | 9.0 | 16.0 | 0.00 | 0.00 | 0.00 | 100 | 958.6 |
| 20260508113700 | 51 | 1 | 11.0 | 16.0 | 0.00 | 0.00 | 0.00 | 100 | 958.6 |
| 20260508113600 | 51 | 356 | 11.0 | 16.0 | 0.00 | 0.00 | 0.00 | 100 | 958.5 |
| 20260508113458 | 51 | 354 | 11.0 | 17.0 | 0.00 | 0.00 | 0.00 | 100 | 958.5 |
| 20260508113255 | 51 | 354 | 11.0 | 17.0 | 0.00 | 0.00 | 0.00 | 100 | 958.7 |
| 20260508113052 | 50 | 351 | 9.0 | 17.0 | 0.00 | 0.00 | 0.00 | 100 | 958.5 |
| 20260508112951 | 51 | 352 | 8.0 | 16.0 | 0.00 | 0.00 | 0.00 | 100 | 958.6 |
| 20260508112850 | 51 | 354 | 10.0 | 18.0 | 0.00 | 0.00 | 0.00 | 100 | 958.6 |
| 20260508112647 | 50 | 356 | 11.0 | 18.0 | 0.00 | 0.00 | 0.00 | 100 | 958.6 |
| 20260508112444 | 50 | 2 | 12.0 | 18.0 | 0.00 | 0.00 | 0.00 | 100 | 958.6 |
| 20260508112343 | 50 | 2 | 11.0 | 17.0 | 0.00 | 0.00 | 0.00 | 100 | 958.6 |
| 20260508112241 | 50 | 1 | 11.0 | 17.0 | 0.00 | 0.00 | 0.00 | 100 | 958.6 |
| 20260508112037 | 51 | 355 | 10.0 | 16.0 | 0.00 | 0.00 | 0.00 | 100 | 958.5 |
| 20260508111834 | 51 | 350 | 10.0 | 16.0 | 0.00 | 0.00 | 0.00 | 100 | 958.4 |
| 20260508111733 | 51 | 351 | 10.0 | 16.0 | 0.00 | 0.00 | 0.00 | 100 | 958.4 |
| 20260508111630 | 51 | 352 | 10.0 | 16.0 | 0.00 | 0.00 | 0.00 | 100 | 958.4 |
| 20260508111428 | 50 | 2 | 12.0 | 18.0 | 0.00 | 0.00 | 0.00 | 100 | 958.6 |
| 20260508111224 | 50 | 0 | 11.0 | 18.0 | 0.00 | 0.00 | 0.00 | 100 | 958.6 |
| 20260508111110 | 50 | 356 | 10.0 | 18.0 | 0.00 | 0.00 | 0.00 | 100 | 958.5 |
| 20260508111007 | 51 | 357 | 9.0 | 17.0 | 0.00 | 0.00 | 0.00 | 100 | 958.5 |
| 20260508110804 | 50 | 3 | 10.0 | 15.0 | 0.00 | 0.00 | 0.00 | 100 | 958.5 |
| 20260508110601 | 50 | 1 | 10.0 | 15.0 | 0.00 | 0.00 | 0.00 | 100 | 958.6 |
| 20260508110500 | 50 | 359 | 10.0 | 15.0 | 0.00 | 0.00 | 0.00 | 100 | 958.6 |
| 20260508110357 | 50 | 356 | 10.0 | 15.0 | 0.00 | 0.00 | 0.00 | 100 | 958.6 |
| 20260508110154 | 50 | 359 | 10.0 | 16.0 | 0.00 | 0.00 | 0.00 | 100 | 958.5 |
| 20260508105952 | 50 | 2 | 9.0 | 16.0 | 0.00 | 0.00 | 0.00 | 100 | 958.6 |
| 20260508105851 | 50 | 8 | 7.0 | 16.0 | 0.00 | 0.00 | 0.00 | 100 | 958.6 |
| 20260508105748 | 50 | 10 | 7.0 | 12.0 | 0.00 | 0.00 | 0.00 | 100 | 958.5 |
| 20260508105545 | 50 | 9 | 8.0 | 14.0 | 0.00 | 0.00 | 0.00 | 100 | 958.5 |
| 20260508105343 | 50 | 7 | 9.0 | 16.0 | 0.00 | 0.00 | 0.00 | 100 | 958.6 |
| 20260508105242 | 50 | 5 | 10.0 | 16.0 | 0.00 | 0.00 | 0.00 | 100 | 958.5 |
| 20260508105139 | 50 | 5 | 10.0 | 16.0 | 0.00 | 0.00 | 0.00 | 100 | 958.6 |
| 20260508104936 | 50 | 3 | 10.0 | 14.0 | 0.00 | 0.00 | 0.00 | 100 | 958.5 |
| 20260508104733 | 50 | 0 | 10.0 | 16.0 | 0.00 | 0.00 | 0.00 | 100 | 958.4 |
| 20260508104632 | 50 | 356 | 10.0 | 16.0 | 0.00 | 0.00 | 0.00 | 100 | 958.4 |
| 20260508104530 | 50 | 353 | 9.0 | 16.0 | 0.00 | 0.00 | 0.00 | 100 | 958.5 |
| 20260508104327 | 50 | 351 | 9.0 | 14.0 | 0.00 | 0.00 | 0.00 | 100 | 958.4 |
| 20260508104123 | 50 | 355 | 10.0 | 15.0 | 0.00 | 0.00 | 0.00 | 100 | 958.3 |
| 20260508104022 | 50 | 357 | 11.0 | 15.0 | 0.00 | 0.00 | 0.00 | 100 | 958.4 |
| 20260508103920 | 50 | 0 | 11.0 | 15.0 | 0.00 | 0.00 | 0.00 | 100 | 958.3 |
| 20260508103717 | 50 | 4 | 11.0 | 15.0 | 0.00 | 0.00 | 0.00 | 100 | 958.4 |
| 20260508103514 | 50 | 358 | 10.0 | 16.0 | 0.00 | 0.00 | 0.00 | 100 | 958.5 |
| 20260508103413 | 51 | 357 | 10.0 | 16.0 | 0.00 | 0.00 | 0.00 | 100 | 958.5 |
| 20260508103311 | 50 | 359 | 11.0 | 18.0 | 0.00 | 0.00 | 0.00 | 100 | 958.4 |
| 20260508103108 | 50 | 4 | 12.0 | 18.0 | 0.00 | 0.00 | 0.00 | 100 | 958.4 |
| 20260508102906 | 50 | 4 | 10.0 | 14.0 | 0.00 | 0.00 | 0.00 | 100 | 958.4 |
| 20260508102804 | 50 | 4 | 10.0 | 15.0 | 0.00 | 0.00 | 0.00 | 100 | 958.3 |
| 20260508102702 | 50 | 4 | 10.0 | 15.0 | 0.00 | 0.00 | 0.00 | 100 | 958.2 |
| 20260508102459 | 50 | 359 | 10.0 | 15.0 | 0.00 | 0.00 | 0.00 | 100 | 958.4 |
| 20260508102257 | 51 | 2 | 9.0 | 15.0 | 0.00 | 0.00 | 0.00 | 100 | 958.3 |
| 20260508102156 | 50 | 3 | 10.0 | 17.0 | 0.00 | 0.00 | 0.00 | 100 | 958.3 |
| 20260508102053 | 50 | 4 | 11.0 | 17.0 | 0.00 | 0.00 | 0.00 | 100 | 958.3 |
| 20260508101850 | 50 | 4 | 12.0 | 17.0 | 0.00 | 0.00 | 0.00 | 100 | 958.4 |
| 20260508101647 | 50 | 4 | 12.0 | 16.0 | 0.00 | 0.00 | 0.00 | 100 | 958.2 |
| 20260508101547 | 50 | 4 | 11.0 | 16.0 | 0.00 | 0.00 | 0.00 | 100 | 958.3 |
| 20260508101444 | 50 | 2 | 11.0 | 16.0 | 0.00 | 0.00 | 0.00 | 100 | 958.3 |
| 20260508101241 | 51 | 1 | 10.0 | 19.0 | 0.00 | 0.00 | 0.00 | 100 | 958.3 |
| 20260508101038 | 50 | 1 | 11.0 | 19.0 | 0.00 | 0.00 | 0.00 | 100 | 958.3 |
| 20260508100937 | 50 | 3 | 11.0 | 19.0 | 0.00 | 0.00 | 0.00 | 100 | 958.4 |
| 20260508100835 | 51 | 7 | 10.0 | 19.0 | 0.00 | 0.00 | 0.00 | 100 | 958.4 |
| 20260508100631 | 51 | 7 | 9.0 | 12.0 | 0.00 | 0.00 | 0.00 | 100 | 958.5 |
| 20260508100428 | 51 | 358 | 8.0 | 12.0 | 0.00 | 0.00 | 0.00 | 100 | 958.4 |
| 20260508100328 | 51 | 355 | 8.0 | 14.0 | 0.00 | 0.00 | 0.00 | 100 | 958.4 |
| 20260508100226 | 51 | 355 | 9.0 | 16.0 | 0.00 | 0.00 | 0.00 | 100 | 958.5 |
| 20260508100022 | 51 | 0 | 10.0 | 16.0 | 0.00 | 0.00 | 0.00 | 100 | 958.5 |
| 20260508095819 | 51 | 4 | 9.0 | 16.0 | 0.00 | 0.00 | 0.00 | 100 | 958.4 |
| 20260508095718 | 51 | 4 | 9.0 | 15.0 | 0.00 | 0.00 | 0.00 | 100 | 958.4 |
| 20260508095616 | 51 | 1 | 10.0 | 15.0 | 0.00 | 0.00 | 0.00 | 100 | 958.4 |
| 20260508095413 | 51 | 358 | 10.0 | 15.0 | 0.00 | 0.00 | 0.00 | 100 | 958.4 |
| 20260508095209 | 51 | 1 | 10.0 | 15.0 | 0.00 | 0.00 | 0.00 | 100 | 958.4 |
| 20260508095109 | 50 | 4 | 10.0 | 15.0 | 0.00 | 0.00 | 0.00 | 100 | 958.4 |
| 20260508095006 | 51 | 4 | 10.0 | 15.0 | 0.00 | 0.00 | 0.00 | 100 | 958.5 |
| 20260508094803 | 51 | 3 | 10.0 | 15.0 | 0.00 | 0.00 | 0.00 | 100 | 958.3 |
| 20260508094600 | 51 | 4 | 10.0 | 15.0 | 0.00 | 0.00 | 0.00 | 100 | 958.4 |
| 20260508094459 | 51 | 4 | 9.0 | 15.0 | 0.00 | 0.00 | 0.00 | 100 | 958.4 |
| 20260508094357 | 51 | 4 | 8.0 | 14.0 | 0.00 | 0.00 | 0.00 | 100 | 958.5 |
| 20260508094154 | 51 | 3 | 8.0 | 12.0 | 0.00 | 0.00 | 0.00 | 100 | 958.4 |
| 20260508093951 | 51 | 4 | 7.0 | 12.0 | 0.00 | 0.00 | 0.00 | 100 | 958.4 |
| 20260508093850 | 51 | 3 | 6.0 | 12.0 | 0.00 | 0.00 | 0.00 | 100 | 958.4 |
| 20260508093747 | 52 | 2 | 5.0 | 10.0 | 0.00 | 0.00 | 0.00 | 100 | 958.5 |
| 20260508093544 | 52 | 4 | 5.0 | 10.0 | 0.00 | 0.00 | 0.00 | 100 | 958.4 |
| 20260508093341 | 52 | 10 | 5.0 | 10.0 | 0.00 | 0.00 | 0.00 | 100 | 958.3 |
| 20260508093240 | 52 | 10 | 5.0 | 8.0 | 0.00 | 0.00 | 0.00 | 100 | 958.5 |
| 20260508093138 | 52 | 13 | 5.0 | 8.0 | 0.00 | 0.00 | 0.00 | 100 | 958.5 |
| 20260508092934 | 52 | 3 | 6.0 | 10.0 | 0.00 | 0.00 | 0.00 | 100 | 958.4 |
| 20260508092731 | 51 | 352 | 4.0 | 10.0 | 0.00 | 0.00 | 0.00 | 100 | 958.5 |
| 20260508092631 | 51 | 349 | 5.0 | 10.0 | 0.00 | 0.00 | 0.00 | 100 | 958.3 |
| 20260508092529 | 51 | 348 | 4.0 | 8.0 | 0.00 | 0.00 | 0.00 | 100 | 958.4 |
| 20260508092325 | 51 | 344 | 6.0 | 8.0 | 0.00 | 0.00 | 0.00 | 100 | 958.4 |
| 20260508092122 | 51 | 337 | 6.0 | 9.0 | 0.00 | 0.00 | 0.00 | 100 | 958.4 |
| 20260508092022 | 51 | 341 | 5.0 | 9.0 | 0.00 | 0.00 | 0.00 | 100 | 958.4 |
| 20260508091920 | 51 | 357 | 5.0 | 9.0 | 0.00 | 0.00 | 0.00 | 100 | 958.4 |
| 20260508091717 | 52 | 10 | 5.0 | 10.0 | 0.00 | 0.00 | 0.00 | 100 | 958.4 |
| 20260508091514 | 52 | 2 | 5.0 | 10.0 | 0.00 | 0.00 | 0.00 | 100 | 958.4 |
| 20260508091413 | 52 | 7 | 4.0 | 10.0 | 0.00 | 0.00 | 0.00 | 100 | 958.4 |
| 20260508091311 | 52 | 14 | 4.0 | 7.0 | 0.00 | 0.00 | 0.00 | 100 | 958.4 |
| 20260508091108 | 51 | 15 | 6.0 | 7.0 | 0.00 | 0.00 | 0.00 | 100 | 958.4 |
| 20260508090905 | 51 | 9 | 6.0 | 8.0 | 0.00 | 0.00 | 0.00 | 100 | 958.4 |
| 20260508090804 | 51 | 12 | 6.0 | 8.0 | 0.00 | 0.00 | 0.00 | 100 | 958.4 |
| 20260508090702 | 51 | 12 | 6.0 | 9.0 | 0.00 | 0.00 | 0.00 | 100 | 958.4 |
| 20260508090459 | 51 | 11 | 6.0 | 10.0 | 0.00 | 0.00 | 0.00 | 100 | 958.5 |
| 20260508090256 | 51 | 4 | 7.0 | 10.0 | 0.00 | 0.00 | 0.00 | 100 | 958.5 |
| 20260508090155 | 51 | 3 | 6.0 | 10.0 | 0.00 | 0.00 | 0.00 | 100 | 958.5 |
| 20260508090052 | 51 | 2 | 6.0 | 11.0 | 0.00 | 0.00 | 0.00 | 100 | 958.5 |
| 20260508085849 | 50 | 2 | 6.0 | 11.0 | 0.00 | 0.00 | 0.00 | 100 | 958.5 |
| 20260508085647 | 51 | 1 | 7.0 | 11.0 | 0.00 | 0.00 | 0.00 | 100 | 958.4 |
| 20260508085546 | 51 | 357 | 6.0 | 10.0 | 0.00 | 0.00 | 0.00 | 100 | 958.4 |
| 20260508085443 | 51 | 349 | 6.0 | 10.0 | 0.00 | 0.00 | 0.00 | 100 | 958.4 |
| 20260508085241 | 51 | 341 | 5.0 | 8.0 | 0.00 | 0.00 | 0.00 | 100 | 958.4 |
| 20260508085038 | 51 | 350 | 7.0 | 13.0 | 0.00 | 0.00 | 0.00 | 100 | 958.3 |
| 20260508084937 | 50 | 355 | 8.0 | 13.0 | 0.00 | 0.00 | 0.00 | 100 | 958.3 |
| 20260508084834 | 50 | 357 | 8.0 | 13.0 | 0.00 | 0.00 | 0.00 | 100 | 958.3 |
| 20260508084631 | 50 | 1 | 7.0 | 11.0 | 0.00 | 0.00 | 0.00 | 100 | 958.3 |
| 20260508084428 | 50 | 359 | 8.0 | 11.0 | 0.00 | 0.00 | 0.00 | 100 | 958.3 |
| 20260508084327 | 50 | 358 | 8.0 | 10.0 | 0.00 | 0.00 | 0.00 | 100 | 958.4 |
| 20260508084129 | 50 | 359 | 7.0 | 12.0 | 0.00 | 0.00 | 0.00 | 100 | 958.3 |
| 20260508083926 | 50 | 2 | 6.0 | 12.0 | 0.00 | 0.00 | 0.00 | 100 | 958.3 |
| 20260508083825 | 50 | 6 | 5.0 | 9.0 | 0.00 | 0.00 | 0.00 | 100 | 958.4 |
| 20260508083722 | 50 | 13 | 5.0 | 9.0 | 0.00 | 0.00 | 0.00 | 100 | 958.3 |
| 20260508083519 | 50 | 21 | 4.0 | 7.0 | 0.00 | 0.00 | 0.00 | 100 | 958.4 |
| 20260508083316 | 50 | 23 | 3.0 | 7.0 | 0.00 | 0.00 | 0.00 | 100 | 958.3 |
| 20260508083216 | 50 | 47 | 3.0 | 6.0 | 0.00 | 0.00 | 0.00 | 100 | 958.3 |
| 20260508083113 | 50 | 55 | 3.0 | 6.0 | 0.00 | 0.00 | 0.00 | 100 | 958.3 |
| 20260508082910 | 50 | 75 | 3.0 | 6.0 | 0.00 | 0.00 | 0.00 | 100 | 958.3 |
| 20260508082707 | 50 | 67 | 2.0 | 4.0 | 0.00 | 0.00 | 0.00 | 100 | 958.4 |
| 20260508082553 | 50 | 55 | 2.0 | 4.0 | 0.00 | 0.00 | 0.00 | 100 | 958.3 |
| 20260508082450 | 50 | 52 | 2.0 | 4.0 | 0.00 | 0.00 | 0.00 | 100 | 958.3 |
| 20260508082247 | 49 | 52 | 2.0 | 4.0 | 0.00 | 0.00 | 0.00 | 100 | 958.3 |
| 20260508082044 | 49 | 59 | 2.0 | 3.0 | 0.00 | 0.00 | 0.00 | 100 | 958.4 |
| 20260508081943 | 49 | 61 | 2.0 | 3.0 | 0.00 | 0.00 | 0.00 | 100 | 958.3 |
| 20260508081840 | 49 | 52 | 2.0 | 3.0 | 0.00 | 0.00 | 0.00 | 100 | 958.3 |
| 20260508081638 | 50 | 42 | 2.0 | 4.0 | 0.00 | 0.00 | 0.00 | 100 | 958.3 |
| 20260508081435 | 49 | 53 | 2.0 | 4.0 | 0.00 | 0.00 | 0.00 | 100 | 958.3 |
| 20260508081335 | 49 | 57 | 2.0 | 4.0 | 0.00 | 0.00 | 0.00 | 100 | 958.3 |
| 20260508081232 | 49 | 63 | 2.0 | 3.0 | 0.00 | 0.00 | 0.00 | 100 | 958.3 |
| 20260508081028 | 49 | 64 | 2.0 | 4.0 | 0.00 | 0.00 | 0.00 | 100 | 958.3 |
| 20260508080825 | 49 | 55 | 3.0 | 5.0 | 0.00 | 0.00 | 0.00 | 100 | 958.3 |
| 20260508080724 | 49 | 55 | 3.0 | 5.0 | 0.00 | 0.00 | 0.00 | 100 | 958.3 |
| 20260508080622 | 49 | 56 | 4.0 | 5.0 | 0.00 | 0.00 | 0.00 | 100 | 958.4 |
| 20260508080418 | 49 | 60 | 3.0 | 5.0 | 0.00 | 0.00 | 0.00 | 100 | 958.2 |
| 20260508080215 | 49 | 55 | 2.0 | 4.0 | 0.00 | 0.00 | 0.00 | 100 | 958.3 |
| 20260508080114 | 49 | 52 | 2.0 | 5.0 | 0.00 | 0.00 | 0.00 | 100 | 958.3 |
| 20260508080012 | 49 | 51 | 3.0 | 5.0 | 0.00 | 0.00 | 0.00 | 100 | 958.2 |
| 20260508075809 | 49 | 36 | 3.0 | 5.0 | 0.00 | 0.00 | 0.00 | 100 | 958.2 |
| 20260508075605 | 49 | 30 | 2.0 | 4.0 | 0.00 | 0.00 | 0.00 | 100 | 958.3 |
| 20260508075505 | 49 | 46 | 2.0 | 4.0 | 0.00 | 0.00 | 0.00 | 100 | 958.2 |
| 20260508075402 | 49 | 42 | 2.0 | 4.0 | 0.00 | 0.00 | 0.00 | 100 | 958.3 |
| 20260508075159 | 49 | 37 | 2.0 | 4.0 | 0.00 | 0.00 | 0.00 | 100 | 958.1 |
| 20260508074956 | 49 | 31 | 3.0 | 5.0 | 0.00 | 0.00 | 0.00 | 100 | 958.2 |
| 20260508074855 | 49 | 37 | 3.0 | 5.0 | 0.00 | 0.00 | 0.00 | 100 | 958.2 |
| 20260508074753 | 49 | 25 | 3.0 | 5.0 | 0.00 | 0.00 | 0.00 | 100 | 958.2 |
| 20260508074550 | 49 | 15 | 4.0 | 8.0 | 0.00 | 0.00 | 0.00 | 100 | 958.1 |
| 20260508074346 | 49 | 10 | 4.0 | 8.0 | 0.00 | 0.00 | 0.00 | 100 | 958.1 |
| 20260508074246 | 49 | 11 | 4.0 | 6.0 | 0.00 | 0.00 | 0.00 | 100 | 958.1 |
| 20260508074144 | 49 | 9 | 5.0 | 8.0 | 0.00 | 0.00 | 0.00 | 100 | 958.1 |
| 20260508073941 | 48 | 4 | 6.0 | 10.0 | 0.00 | 0.00 | 0.00 | 100 | 958.2 |
| 20260508073738 | 49 | 6 | 6.0 | 10.0 | 0.00 | 0.00 | 0.00 | 100 | 958.1 |
| 20260508073637 | 49 | 5 | 6.0 | 10.0 | 0.00 | 0.00 | 0.00 | 100 | 958.1 |
| 20260508073535 | 49 | 7 | 6.0 | 9.0 | 0.00 | 0.00 | 0.00 | 100 | 958.0 |
| 20260508073333 | 49 | 15 | 5.0 | 9.0 | 0.00 | 0.00 | 0.00 | 100 | 958.1 |
| 20260508073129 | 49 | 33 | 4.0 | 7.0 | 0.00 | 0.00 | 0.00 | 100 | 958.1 |
| 20260508073029 | 49 | 23 | 4.0 | 8.0 | 0.00 | 0.00 | 0.00 | 100 | 958.0 |
| 20260508072926 | 49 | 17 | 5.0 | 8.0 | 0.00 | 0.00 | 0.00 | 100 | 958.0 |
| 20260508072724 | 49 | 5 | 6.0 | 9.0 | 0.00 | 0.00 | 0.00 | 100 | 958.0 |
| 20260508072521 | 49 | 2 | 5.0 | 9.0 | 0.00 | 0.00 | 0.00 | 100 | 958.0 |
| 20260508072420 | 49 | 9 | 5.0 | 8.0 | 0.00 | 0.00 | 0.00 | 100 | 958.0 |
| 20260508072318 | 49 | 20 | 4.0 | 6.0 | 0.00 | 0.00 | 0.00 | 100 | 957.9 |
| 20260508072115 | 49 | 29 | 4.0 | 6.0 | 0.00 | 0.00 | 0.00 | 100 | 957.9 |
| 20260508071912 | 49 | 18 | 5.0 | 7.0 | 0.00 | 0.00 | 0.00 | 100 | 958.0 |
| 20260508071810 | 49 | 12 | 5.0 | 7.0 | 0.00 | 0.00 | 0.00 | 100 | 957.9 |
| 20260508071708 | 49 | 16 | 4.0 | 7.0 | 0.00 | 0.00 | 0.00 | 100 | 957.9 |
| 20260508071505 | 49 | 18 | 4.0 | 7.0 | 0.00 | 0.00 | 0.00 | 100 | 957.8 |
| 20260508071302 | 49 | 29 | 4.0 | 6.0 | 0.00 | 0.00 | 0.00 | 100 | 957.8 |
| 20260508071201 | 49 | 33 | 4.0 | 7.0 | 0.00 | 0.00 | 0.00 | 100 | 957.8 |
| 20260508071059 | 49 | 35 | 4.0 | 7.0 | 0.00 | 0.00 | 0.00 | 100 | 957.8 |
| 20260508070856 | 49 | 19 | 4.0 | 7.0 | 0.00 | 0.00 | 0.00 | 100 | 957.8 |
| 20260508070652 | 49 | 7 | 5.0 | 10.0 | 0.00 | 0.00 | 0.00 | 100 | 957.7 |
| 20260508070552 | 49 | 3 | 6.0 | 10.0 | 0.00 | 0.00 | 0.00 | 100 | 957.7 |
| 20260508070449 | 49 | 2 | 6.0 | 10.0 | 0.00 | 0.00 | 0.00 | 100 | 957.8 |
| 20260508070247 | 49 | 2 | 7.0 | 11.0 | 0.00 | 0.00 | 0.00 | 100 | 957.7 |
| 20260508070043 | 49 | 6 | 6.0 | 11.0 | 0.00 | 0.00 | 0.00 | 100 | 957.7 |
| 20260508065943 | 49 | 7 | 5.0 | 11.0 | 0.00 | 0.00 | 0.00 | 100 | 957.7 |
| 20260508065840 | 50 | 8 | 5.0 | 7.0 | 0.00 | 0.00 | 0.00 | 100 | 957.6 |
| 20260508065638 | 49 | 8 | 5.0 | 8.0 | 0.00 | 0.00 | 0.00 | 100 | 957.6 |
| 20260508065435 | 49 | 4 | 6.0 | 11.0 | 0.00 | 0.00 | 0.00 | 100 | 957.7 |
| 20260508065334 | 49 | 1 | 6.0 | 11.0 | 0.00 | 0.00 | 0.00 | 100 | 957.6 |
| 20260508065231 | 50 | 1 | 7.0 | 11.0 | 0.00 | 0.00 | 0.00 | 100 | 957.7 |
| 20260508065028 | 49 | 5 | 6.0 | 10.0 | 0.00 | 0.00 | 0.00 | 100 | 957.5 |
| 20260508064824 | 50 | 6 | 6.0 | 10.0 | 0.00 | 0.00 | 0.00 | 100 | 957.6 |
| 20260508064724 | 50 | 6 | 6.0 | 10.0 | 0.00 | 0.00 | 0.00 | 100 | 957.6 |
| 20260508064621 | 50 | 9 | 6.0 | 10.0 | 0.00 | 0.00 | 0.00 | 100 | 957.5 |
| 20260508064417 | 50 | 12 | 6.0 | 8.0 | 0.00 | 0.00 | 0.00 | 100 | 957.5 |
| 20260508064214 | 49 | 6 | 6.0 | 9.0 | 0.00 | 0.00 | 0.00 | 100 | 957.4 |
| 20260508064114 | 49 | 6 | 5.0 | 9.0 | 0.00 | 0.00 | 0.00 | 100 | 957.4 |
| 20260508064011 | 49 | 7 | 5.0 | 9.0 | 0.00 | 0.00 | 0.00 | 100 | 957.5 |
| 20260508063808 | 49 | 2 | 6.0 | 11.0 | 0.00 | 0.00 | 0.00 | 100 | 957.4 |
| 20260508063605 | 49 | 358 | 6.0 | 11.0 | 0.00 | 0.00 | 0.00 | 100 | 957.5 |
| 20260508063504 | 49 | 358 | 6.0 | 11.0 | 0.00 | 0.00 | 0.00 | 100 | 957.5 |
| 20260508063402 | 49 | 0 | 7.0 | 11.0 | 0.00 | 0.00 | 0.00 | 100 | 957.4 |
| 20260508063159 | 49 | 3 | 7.0 | 11.0 | 0.00 | 0.00 | 0.00 | 100 | 957.4 |
| 20260508062955 | 49 | 3 | 7.0 | 11.0 | 0.00 | 0.00 | 0.00 | 100 | 957.5 |
| 20260508062854 | 48 | 2 | 8.0 | 11.0 | 0.00 | 0.00 | 0.00 | 100 | 957.5 |
| 20260508062752 | 48 | 0 | 8.0 | 11.0 | 0.00 | 0.00 | 0.00 | 100 | 957.4 |
| 20260508062549 | 48 | 358 | 8.0 | 10.0 | 0.00 | 0.00 | 0.00 | 100 | 957.3 |
| 20260508062346 | 48 | 355 | 8.0 | 13.0 | 0.00 | 0.00 | 0.00 | 100 | 957.4 |
| 20260508062246 | 48 | 358 | 8.0 | 13.0 | 0.00 | 0.00 | 0.00 | 100 | 957.4 |
| 20260508062143 | 48 | 1 | 8.0 | 13.0 | 0.00 | 0.00 | 0.00 | 100 | 957.4 |
| 20260508061940 | 48 | 4 | 7.0 | 11.0 | 0.00 | 0.00 | 0.00 | 100 | 957.4 |
| 20260508061737 | 49 | 0 | 7.0 | 11.0 | 0.00 | 0.00 | 0.00 | 100 | 957.4 |
| 20260508061636 | 49 | 359 | 7.0 | 11.0 | 0.00 | 0.00 | 0.00 | 100 | 957.3 |
| 20260508061534 | 49 | 357 | 7.0 | 11.0 | 0.00 | 0.00 | 0.00 | 100 | 957.2 |
| 20260508061331 | 49 | 356 | 6.0 | 10.0 | 0.00 | 0.00 | 0.00 | 100 | 957.3 |
| 20260508061128 | 49 | 356 | 7.0 | 11.0 | 0.00 | 0.00 | 0.00 | 100 | 957.3 |
| 20260508061028 | 49 | 358 | 7.0 | 11.0 | 0.00 | 0.00 | 0.00 | 100 | 957.4 |
| 20260508060925 | 49 | 356 | 7.0 | 11.0 | 0.00 | 0.00 | 0.00 | 100 | 957.4 |
| 20260508060722 | 48 | 357 | 8.0 | 11.0 | 0.00 | 0.00 | 0.00 | 100 | 957.4 |
| 20260508060519 | 48 | 359 | 8.0 | 12.0 | 0.00 | 0.00 | 0.00 | 100 | 957.4 |
| 20260508060418 | 48 | 0 | 8.0 | 12.0 | 0.00 | 0.00 | 0.00 | 100 | 957.4 |
| 20260508060316 | 48 | 1 | 9.0 | 12.0 | 0.00 | 0.00 | 0.00 | 100 | 957.4 |
| 20260508060112 | 47 | 3 | 9.0 | 12.0 | 0.00 | 0.00 | 0.00 | 100 | 957.3 |
| 20260508055909 | 48 | 1 | 9.0 | 12.0 | 0.00 | 0.00 | 0.00 | 100 | 957.4 |
| 20260508055809 | 47 | 0 | 10.0 | 12.0 | 0.00 | 0.00 | 0.00 | 100 | 957.4 |
| 20260508055706 | 47 | 359 | 10.0 | 13.0 | 0.00 | 0.00 | 0.00 | 100 | 957.4 |
| 20260508055502 | 47 | 2 | 10.0 | 13.0 | 0.00 | 0.00 | 0.00 | 100 | 957.4 |
| 20260508055259 | 47 | 3 | 10.0 | 14.0 | 0.00 | 0.00 | 0.00 | 100 | 957.4 |
| 20260508055158 | 47 | 2 | 10.0 | 14.0 | 0.00 | 0.00 | 0.00 | 100 | 957.4 |
| 20260508055056 | 47 | 1 | 10.0 | 14.0 | 0.00 | 0.00 | 0.00 | 100 | 957.3 |
| 20260508054853 | 47 | 2 | 11.0 | 14.0 | 0.00 | 0.00 | 0.00 | 100 | 957.3 |
| 20260508054637 | 47 | 3 | 10.0 | 13.0 | 0.00 | 0.00 | 0.00 | 100 | 957.3 |
| 20260508054536 | 47 | 2 | 9.0 | 12.0 | 0.00 | 0.00 | 0.00 | 100 | 957.3 |
| 20260508054434 | 47 | 3 | 9.0 | 12.0 | 0.00 | 0.00 | 0.00 | 100 | 957.3 |
| 20260508054231 | 47 | 3 | 9.0 | 13.0 | 0.00 | 0.00 | 0.00 | 100 | 957.3 |
| 20260508054027 | 47 | 2 | 10.0 | 14.0 | 0.00 | 0.00 | 0.00 | 100 | 957.3 |
| 20260508053927 | 47 | 357 | 10.0 | 14.0 | 0.00 | 0.00 | 0.00 | 100 | 957.3 |
| 20260508053824 | 47 | 357 | 10.0 | 14.0 | 0.00 | 0.00 | 0.00 | 100 | 957.4 |
| 20260508053622 | 47 | 0 | 10.0 | 14.0 | 0.00 | 0.00 | 0.00 | 100 | 957.3 |
| 20260508053418 | 47 | 4 | 10.0 | 14.0 | 0.00 | 0.00 | 0.00 | 100 | 957.3 |
| 20260508053318 | 47 | 4 | 11.0 | 14.0 | 0.00 | 0.00 | 0.00 | 100 | 957.3 |
| 20260508053216 | 47 | 3 | 10.0 | 14.0 | 0.00 | 0.00 | 0.00 | 100 | 957.3 |
| 20260508053012 | 47 | 1 | 10.0 | 14.0 | 0.00 | 0.00 | 0.00 | 100 | 957.3 |
| 20260508052809 | 48 | 2 | 9.0 | 12.0 | 0.00 | 0.00 | 0.00 | 100 | 957.2 |
| 20260508052708 | 47 | 2 | 9.0 | 15.0 | 0.00 | 0.00 | 0.00 | 100 | 957.2 |
| 20260508052606 | 47 | 1 | 9.0 | 15.0 | 0.00 | 0.00 | 0.00 | 100 | 957.3 |
| 20260508052403 | 48 | 359 | 9.0 | 15.0 | 0.00 | 0.00 | 0.00 | 100 | 957.1 |
| 20260508052201 | 48 | 358 | 9.0 | 14.0 | 0.00 | 0.00 | 0.00 | 100 | 957.3 |
| 20260508052100 | 48 | 355 | 9.0 | 14.0 | 0.00 | 0.00 | 0.00 | 100 | 957.3 |
| 20260508051958 | 48 | 354 | 8.0 | 13.0 | 0.00 | 0.00 | 0.00 | 100 | 957.1 |
| 20260508051755 | 48 | 352 | 8.0 | 12.0 | 0.00 | 0.00 | 0.00 | 100 | 957.2 |
| 20260508051552 | 48 | 357 | 9.0 | 14.0 | 0.00 | 0.00 | 0.00 | 100 | 957.2 |
| 20260508051451 | 48 | 359 | 9.0 | 14.0 | 0.00 | 0.00 | 0.00 | 100 | 957.1 |
| 20260508051349 | 48 | 1 | 9.0 | 14.0 | 0.00 | 0.00 | 0.00 | 100 | 957.1 |
| 20260508051146 | 48 | 2 | 9.0 | 12.0 | 0.00 | 0.00 | 0.00 | 100 | 957.2 |
| 20260508050943 | 48 | 0 | 7.0 | 12.0 | 0.00 | 0.00 | 0.00 | 100 | 957.0 |
| 20260508050842 | 48 | 1 | 7.0 | 11.0 | 0.00 | 0.00 | 0.00 | 100 | 957.1 |
| 20260508050740 | 48 | 0 | 7.0 | 11.0 | 0.00 | 0.00 | 0.00 | 100 | 957.0 |
| 20260508050536 | 48 | 0 | 6.0 | 11.0 | 0.00 | 0.00 | 0.00 | 100 | 957.0 |
| 20260508050333 | 48 | 359 | 5.0 | 8.0 | 0.00 | 0.00 | 0.00 | 100 | 957.0 |
| 20260508050232 | 48 | 356 | 4.0 | 7.0 | 0.00 | 0.00 | 0.00 | 100 | 957.0 |
| 20260508050130 | 48 | 350 | 4.0 | 7.0 | 0.00 | 0.00 | 0.00 | 100 | 956.9 |
| 20260508045928 | 49 | 354 | 5.0 | 9.0 | 0.00 | 0.00 | 0.00 | 100 | 957.0 |
| 20260508045724 | 49 | 2 | 5.0 | 9.0 | 0.00 | 0.00 | 0.00 | 100 | 957.1 |
| 20260508045623 | 48 | 0 | 4.0 | 9.0 | 0.00 | 0.00 | 0.00 | 100 | 956.9 |
| 20260508045521 | 49 | 352 | 4.0 | 9.0 | 0.00 | 0.00 | 0.00 | 100 | 956.8 |
| 20260508045318 | 49 | 350 | 2.0 | 4.0 | 0.00 | 0.00 | 0.00 | 100 | 956.9 |
| 20260508045115 | 49 | 5 | 2.0 | 4.0 | 0.00 | 0.00 | 0.00 | 100 | 957.0 |
| 20260508045014 | 49 | 9 | 2.0 | 3.0 | 0.00 | 0.00 | 0.00 | 100 | 957.0 |
| 20260508044912 | 49 | 357 | 2.0 | 3.0 | 0.00 | 0.00 | 0.00 | 100 | 957.1 |
| 20260508044710 | 49 | 333 | 2.0 | 4.0 | 0.00 | 0.00 | 0.00 | 100 | 956.9 |
| 20260508044507 | 49 | 325 | 2.0 | 4.0 | 0.00 | 0.00 | 0.00 | 100 | 957.0 |
| 20260508044406 | 49 | 322 | 2.0 | 4.0 | 0.00 | 0.00 | 0.00 | 100 | 956.9 |
| 20260508044304 | 50 | 313 | 2.0 | 3.0 | 0.00 | 0.00 | 0.00 | 100 | 957.1 |
| 20260508044100 | 50 | 0 | 0.0 | 2.0 | 0.00 | 0.00 | 0.00 | 100 | 957.0 |
| 20260508043857 | 50 | 0 | 0.0 | 1.0 | 0.00 | 0.00 | 0.00 | 100 | 956.9 |
| 20260508043757 | 50 | 0 | 0.0 | 1.0 | 0.00 | 0.00 | 0.00 | 100 | 956.9 |
| 20260508043655 | 50 | 0 | 0.0 | 2.0 | 0.00 | 0.00 | 0.00 | 100 | 957.0 |
| 20260508043452 | 49 | 156 | 1.0 | 2.0 | 0.00 | 0.00 | 0.00 | 100 | 956.8 |
| 20260508043249 | 49 | 165 | 1.0 | 2.0 | 0.00 | 0.00 | 0.00 | 100 | 956.8 |
| 20260508043149 | 49 | 0 | 1.0 | 2.0 | 0.00 | 0.00 | 0.00 | 100 | 956.9 |
| 20260508043046 | 49 | 0 | 0.0 | 2.0 | 0.00 | 0.00 | 0.00 | 100 | 956.8 |
| 20260508042843 | 49 | 0 | 1.0 | 3.0 | 0.00 | 0.00 | 0.00 | 100 | 956.9 |
| 20260508042640 | 49 | 176 | 1.0 | 3.0 | 0.00 | 0.00 | 0.00 | 100 | 956.8 |
| 20260508042539 | 49 | 171 | 2.0 | 3.0 | 0.00 | 0.00 | 0.00 | 100 | 956.9 |
| 20260508042437 | 49 | 165 | 2.0 | 3.0 | 0.00 | 0.00 | 0.00 | 100 | 956.8 |
| 20260508042234 | 49 | 153 | 2.0 | 3.0 | 0.00 | 0.00 | 0.00 | 100 | 956.7 |
| 20260508042031 | 49 | 0 | 1.0 | 2.0 | 0.00 | 0.00 | 0.00 | 100 | 956.9 |
| 20260508041930 | 49 | 0 | 0.0 | 2.0 | 0.00 | 0.00 | 0.00 | 100 | 956.8 |
| 20260508041828 | 49 | 0 | 0.0 | 1.0 | 0.00 | 0.00 | 0.00 | 100 | 956.9 |
| 20260508041625 | 49 | 0 | 0.0 | 1.0 | 0.00 | 0.00 | 0.00 | 100 | 956.9 |
| 20260508041421 | 49 | 0 | 1.0 | 2.0 | 0.00 | 0.00 | 0.00 | 100 | 957.0 |
| 20260508041320 | 49 | 295 | 1.0 | 2.0 | 0.00 | 0.00 | 0.00 | 100 | 956.9 |
| 20260508041218 | 49 | 297 | 1.0 | 2.0 | 0.00 | 0.00 | 0.00 | 100 | 956.9 |
| 20260508041015 | 49 | 290 | 1.0 | 3.0 | 0.00 | 0.00 | 0.00 | 100 | 956.9 |
| 20260508040811 | 49 | 282 | 2.0 | 3.0 | 0.00 | 0.00 | 0.00 | 100 | 956.8 |
| 20260508040711 | 49 | 282 | 2.0 | 3.0 | 0.00 | 0.00 | 0.00 | 100 | 956.9 |
| 20260508040608 | 49 | 283 | 2.0 | 3.0 | 0.00 | 0.00 | 0.00 | 100 | 956.8 |
| 20260508040405 | 48 | 279 | 2.0 | 3.0 | 0.00 | 0.00 | 0.00 | 100 | 956.8 |
| 20260508040202 | 48 | 281 | 2.0 | 3.0 | 0.00 | 0.00 | 0.00 | 100 | 956.8 |
| 20260508040101 | 48 | 289 | 2.0 | 3.0 | 0.00 | 0.00 | 0.00 | 100 | 956.8 |
| 20260508035959 | 48 | 299 | 2.0 | 3.0 | 0.00 | 0.00 | 0.00 | 100 | 956.8 |
| 20260508035756 | 48 | 320 | 2.0 | 3.0 | 0.00 | 0.00 | 0.00 | 100 | 956.7 |
| 20260508035552 | 48 | 336 | 2.0 | 3.0 | 0.00 | 0.00 | 0.00 | 100 | 956.6 |
| 20260508035452 | 48 | 341 | 2.0 | 3.0 | 0.00 | 0.00 | 0.00 | 100 | 956.6 |
| 20260508035350 | 48 | 339 | 2.0 | 3.0 | 0.00 | 0.00 | 0.00 | 100 | 956.7 |
| 20260508035147 | 48 | 335 | 2.0 | 3.0 | 0.00 | 0.00 | 0.00 | 100 | 956.7 |
| 20260508034944 | 48 | 328 | 2.0 | 3.0 | 0.00 | 0.00 | 0.00 | 100 | 956.6 |
| 20260508034843 | 48 | 322 | 2.0 | 3.0 | 0.00 | 0.00 | 0.00 | 100 | 956.6 |
| 20260508034741 | 48 | 321 | 2.0 | 4.0 | 0.00 | 0.00 | 0.00 | 100 | 956.7 |
| 20260508034537 | 48 | 315 | 3.0 | 4.0 | 0.00 | 0.00 | 0.00 | 100 | 956.7 |
| 20260508034334 | 48 | 314 | 3.0 | 4.0 | 0.00 | 0.00 | 0.00 | 100 | 956.7 |
| 20260508034234 | 48 | 318 | 3.0 | 4.0 | 0.00 | 0.00 | 0.00 | 100 | 956.6 |
| 20260508034131 | 48 | 321 | 3.0 | 4.0 | 0.00 | 0.00 | 0.00 | 100 | 956.7 |
| 20260508033928 | 48 | 321 | 3.0 | 4.0 | 0.00 | 0.00 | 0.00 | 100 | 956.6 |
| 20260508033725 | 48 | 313 | 3.0 | 5.0 | 0.00 | 0.00 | 0.00 | 100 | 956.6 |
| 20260508033624 | 48 | 313 | 4.0 | 5.0 | 0.00 | 0.00 | 0.00 | 100 | 956.6 |
| 20260508033522 | 48 | 309 | 4.0 | 5.0 | 0.00 | 0.00 | 0.00 | 100 | 956.6 |
| 20260508033319 | 49 | 299 | 2.0 | 5.0 | 0.00 | 0.00 | 0.00 | 100 | 956.5 |
| 20260508033116 | 49 | 0 | 1.0 | 4.0 | 0.00 | 0.00 | 0.00 | 100 | 956.5 |
| 20260508033015 | 49 | 0 | 0.0 | 2.0 | 0.00 | 0.00 | 0.00 | 100 | 956.5 |
| 20260508032913 | 49 | 0 | 0.0 | 2.0 | 0.00 | 0.00 | 0.00 | 100 | 956.5 |
| 20260508032710 | 49 | 0 | 0.0 | 2.0 | 0.00 | 0.00 | 0.00 | 100 | 956.5 |
| 20260508032507 | 49 | 0 | 0.0 | 1.0 | 0.00 | 0.00 | 0.00 | 100 | 956.4 |
| 20260508032406 | 49 | 0 | 0.0 | 1.0 | 0.00 | 0.00 | 0.00 | 100 | 956.4 |
| 20260508032306 | 49 | 0 | 0.0 | 1.0 | 0.00 | 0.00 | 0.00 | 100 | 956.5 |
| 20260508032101 | 49 | 0 | 0.0 | 1.0 | 0.00 | 0.00 | 0.00 | 100 | 956.5 |
| 20260508031857 | 49 | 0 | 0.0 | 1.0 | 0.00 | 0.00 | 0.00 | 100 | 956.5 |
| 20260508031756 | 49 | 0 | 0.0 | 1.0 | 0.00 | 0.00 | 0.00 | 100 | 956.4 |
| 20260508031654 | 49 | 0 | 0.0 | 1.0 | 0.00 | 0.00 | 0.00 | 100 | 956.4 |
| 20260508031450 | 49 | 0 | 0.0 | 2.0 | 0.00 | 0.00 | 0.00 | 100 | 956.4 |
| 20260508031247 | 49 | 0 | 0.0 | 4.0 | 0.00 | 0.00 | 0.00 | 100 | 956.4 |
| 20260508031146 | 49 | 0 | 0.0 | 4.0 | 0.00 | 0.00 | 0.00 | 100 | 956.4 |
| 20260508031043 | 49 | 0 | 0.0 | 4.0 | 0.00 | 0.00 | 0.00 | 100 | 956.5 |
| 20260508030840 | 49 | 0 | 0.0 | 2.0 | 0.00 | 0.00 | 0.00 | 100 | 956.4 |
| 20260508030627 | 49 | 0 | 0.0 | 3.0 | 0.00 | 0.00 | 0.00 | 100 | 956.4 |
| 20260508030526 | 49 | 0 | 1.0 | 3.0 | 0.00 | 0.00 | 0.00 | 100 | 956.3 |
| 20260508030423 | 49 | 0 | 1.0 | 3.0 | 0.00 | 0.00 | 0.00 | 100 | 956.3 |
| 20260508030220 | 49 | 0 | 1.0 | 4.0 | 0.00 | 0.00 | 0.00 | 100 | 956.3 |
| 20260508030017 | 49 | 0 | 1.0 | 4.0 | 0.00 | 0.00 | 0.00 | 100 | 956.3 |
| 20260508025916 | 49 | 0 | 1.0 | 4.0 | 0.00 | 0.00 | 0.00 | 100 | 956.3 |
| 20260508025814 | 49 | 0 | 1.0 | 3.0 | 0.00 | 0.00 | 0.00 | 100 | 956.4 |
| 20260508025610 | 49 | 0 | 1.0 | 2.0 | 0.00 | 0.00 | 0.00 | 100 | 956.3 |
| 20260508025407 | 49 | 0 | 1.0 | 4.0 | 0.00 | 0.00 | 0.00 | 100 | 956.3 |
| 20260508025306 | 49 | 0 | 1.0 | 4.0 | 0.00 | 0.00 | 0.00 | 100 | 956.4 |
| 20260508025204 | 49 | 0 | 1.0 | 4.0 | 0.00 | 0.00 | 0.00 | 100 | 956.2 |
| 20260508025001 | 49 | 0 | 1.0 | 3.0 | 0.00 | 0.00 | 0.00 | 100 | 956.2 |
| 20260508024758 | 49 | 0 | 0.0 | 3.0 | 0.00 | 0.00 | 0.00 | 100 | 956.2 |
| 20260508024657 | 49 | 0 | 0.0 | 2.0 | 0.00 | 0.00 | 0.00 | 100 | 956.2 |
| 20260508024554 | 49 | 0 | 0.0 | 2.0 | 0.00 | 0.00 | 0.00 | 100 | 956.2 |
| 20260508024351 | 50 | 0 | 0.0 | 2.0 | 0.00 | 0.00 | 0.00 | 100 | 956.2 |
| 20260508024147 | 50 | 0 | 0.0 | 2.0 | 0.00 | 0.00 | 0.00 | 100 | 956.3 |
| 20260508024047 | 50 | 0 | 0.0 | 2.0 | 0.00 | 0.00 | 0.00 | 100 | 956.2 |
| 20260508023945 | 50 | 0 | 0.0 | 2.0 | 0.00 | 0.00 | 0.00 | 100 | 956.2 |
| 20260508023743 | 50 | 0 | 0.0 | 2.0 | 0.00 | 0.00 | 0.00 | 100 | 956.2 |
| 20260508023540 | 50 | 0 | 0.0 | 2.0 | 0.00 | 0.00 | 0.00 | 100 | 956.2 |
| 20260508023439 | 50 | 0 | 0.0 | 2.0 | 0.00 | 0.00 | 0.00 | 100 | 956.3 |
| 20260508023337 | 50 | 0 | 0.0 | 2.0 | 0.00 | 0.00 | 0.00 | 100 | 956.2 |
| 20260508023134 | 50 | 0 | 0.0 | 2.0 | 0.00 | 0.00 | 0.00 | 100 | 956.3 |
| 20260508022930 | 50 | 0 | 0.0 | 1.0 | 0.00 | 0.00 | 0.00 | 100 | 956.3 |
| 20260508022829 | 50 | 0 | 0.0 | 1.0 | 0.00 | 0.00 | 0.00 | 100 | 956.2 |
| 20260508022727 | 50 | 0 | 0.0 | 1.0 | 0.00 | 0.00 | 0.00 | 100 | 956.1 |
| 20260508022524 | 50 | 0 | 0.0 | 3.0 | 0.00 | 0.00 | 0.00 | 100 | 956.2 |
| 20260508022321 | 50 | 0 | 0.0 | 3.0 | 0.00 | 0.00 | 0.00 | 100 | 956.1 |
| 20260508022221 | 50 | 0 | 0.0 | 1.0 | 0.00 | 0.00 | 0.00 | 100 | 956.2 |
| 20260508022119 | 50 | 0 | 0.0 | 3.0 | 0.00 | 0.00 | 0.00 | 100 | 956.2 |
| 20260508021915 | 50 | 0 | 1.0 | 3.0 | 0.00 | 0.00 | 0.00 | 100 | 956.2 |
| 20260508021713 | 50 | 0 | 0.0 | 2.0 | 0.00 | 0.00 | 0.00 | 100 | 956.2 |
| 20260508021612 | 50 | 0 | 0.0 | 1.0 | 0.00 | 0.00 | 0.00 | 100 | 956.2 |
| 20260508021509 | 50 | 0 | 0.0 | 2.0 | 0.00 | 0.00 | 0.00 | 100 | 956.2 |
| 20260508021307 | 50 | 270 | 1.0 | 2.0 | 0.00 | 0.00 | 0.00 | 100 | 956.3 |
| 20260508021104 | 50 | 0 | 0.0 | 2.0 | 0.00 | 0.00 | 0.00 | 100 | 956.2 |
| 20260508021004 | 50 | 0 | 0.0 | 2.0 | 0.00 | 0.00 | 0.00 | 100 | 956.2 |
| 20260508020901 | 50 | 0 | 0.0 | 1.0 | 0.00 | 0.00 | 0.00 | 100 | 956.2 |
| 20260508020659 | 50 | 0 | 0.0 | 1.0 | 0.00 | 0.00 | 0.00 | 100 | 956.2 |
| 20260508020455 | 50 | 0 | 0.0 | 1.0 | 0.00 | 0.00 | 0.00 | 100 | 956.2 |
| 20260508020353 | 50 | 0 | 0.0 | 2.0 | 0.00 | 0.00 | 0.00 | 100 | 956.1 |
| 20260508020252 | 50 | 0 | 0.0 | 2.0 | 0.00 | 0.00 | 0.00 | 100 | 956.1 |
| 20260508020049 | 50 | 0 | 0.0 | 2.0 | 0.00 | 0.00 | 0.00 | 100 | 956.1 |
| 20260508015845 | 50 | 0 | 0.0 | 2.0 | 0.00 | 0.00 | 0.00 | 100 | 956.1 |
| 20260508015744 | 50 | 0 | 0.0 | 2.0 | 0.00 | 0.00 | 0.00 | 100 | 956.1 |
| 20260508015642 | 50 | 0 | 0.0 | 2.0 | 0.00 | 0.00 | 0.00 | 100 | 956.1 |
| 20260508015439 | 50 | 0 | 0.0 | 1.0 | 0.00 | 0.00 | 0.00 | 100 | 956.1 |
| 20260508015237 | 50 | 0 | 0.0 | 1.0 | 0.00 | 0.00 | 0.00 | 100 | 956.2 |
| 20260508015136 | 50 | 0 | 0.0 | 2.0 | 0.00 | 0.00 | 0.00 | 100 | 956.1 |
| 20260508015034 | 50 | 0 | 0.0 | 2.0 | 0.00 | 0.00 | 0.00 | 100 | 956.1 |
| 20260508014831 | 50 | 0 | 0.0 | 2.0 | 0.00 | 0.00 | 0.00 | 100 | 956.1 |
| 20260508014628 | 50 | 0 | 0.0 | 2.0 | 0.00 | 0.00 | 0.00 | 100 | 956.2 |
| 20260508014527 | 50 | 0 | 0.0 | 2.0 | 0.00 | 0.00 | 0.00 | 100 | 956.2 |
| 20260508014425 | 50 | 0 | 0.0 | 2.0 | 0.00 | 0.00 | 0.00 | 100 | 956.2 |
| 20260508014222 | 50 | 0 | 0.0 | 2.0 | 0.00 | 0.00 | 0.00 | 100 | 956.1 |
| 20260508014019 | 50 | 0 | 0.0 | 1.0 | 0.00 | 0.00 | 0.00 | 100 | 956.2 |
| 20260508013918 | 50 | 0 | 0.0 | 1.0 | 0.00 | 0.00 | 0.00 | 100 | 956.2 |
| 20260508013816 | 50 | 0 | 0.0 | 1.0 | 0.00 | 0.00 | 0.00 | 100 | 956.2 |
| 20260508013612 | 50 | 0 | 0.0 | 1.0 | 0.00 | 0.00 | 0.00 | 100 | 956.2 |
| 20260508013409 | 50 | 0 | 0.0 | 1.0 | 0.00 | 0.00 | 0.00 | 100 | 956.2 |
| 20260508013308 | 50 | 0 | 0.0 | 1.0 | 0.00 | 0.00 | 0.00 | 100 | 956.1 |
| 20260508013206 | 50 | 0 | 0.0 | 1.0 | 0.00 | 0.00 | 0.00 | 100 | 956.2 |
| 20260508013002 | 50 | 91 | 1.0 | 1.0 | 0.00 | 0.00 | 0.00 | 100 | 956.1 |
| 20260508012759 | 50 | 82 | 1.0 | 1.0 | 0.00 | 0.00 | 0.00 | 100 | 956.0 |
| 20260508012658 | 50 | 96 | 1.0 | 1.0 | 0.00 | 0.00 | 0.00 | 100 | 956.0 |
| 20260508012556 | 50 | 116 | 1.0 | 1.0 | 0.00 | 0.00 | 0.00 | 100 | 956.0 |
| 20260508012353 | 50 | 145 | 1.0 | 1.0 | 0.00 | 0.00 | 0.00 | 100 | 956.1 |
| 20260508012150 | 50 | 0 | 0.0 | 2.0 | 0.00 | 0.00 | 0.00 | 100 | 956.1 |
| 20260508012049 | 50 | 0 | 0.0 | 1.0 | 0.00 | 0.00 | 0.00 | 100 | 956.2 |
| 20260508011946 | 50 | 0 | 0.0 | 1.0 | 0.00 | 0.00 | 0.00 | 100 | 956.1 |
| 20260508011743 | 50 | 0 | 0.0 | 1.0 | 0.00 | 0.00 | 0.00 | 100 | 956.1 |
| 20260508011540 | 50 | 0 | 0.0 | 2.0 | 0.00 | 0.00 | 0.00 | 100 | 956.2 |
| 20260508011439 | 50 | 263 | 1.0 | 2.0 | 0.00 | 0.00 | 0.00 | 100 | 956.2 |
| 20260508011337 | 50 | 274 | 1.0 | 2.0 | 0.00 | 0.00 | 0.00 | 100 | 956.2 |
| 20260508011134 | 49 | 286 | 1.0 | 2.0 | 0.00 | 0.00 | 0.00 | 100 | 956.1 |
| 20260508010931 | 49 | 308 | 1.0 | 3.0 | 0.00 | 0.00 | 0.00 | 100 | 956.2 |
| 20260508010830 | 49 | 309 | 2.0 | 3.0 | 0.00 | 0.00 | 0.00 | 100 | 956.2 |
| 20260508010727 | 50 | 311 | 2.0 | 3.0 | 0.00 | 0.00 | 0.00 | 100 | 956.1 |
| 20260508010524 | 49 | 318 | 2.0 | 3.0 | 0.00 | 0.00 | 0.00 | 100 | 956.2 |
| 20260508010321 | 49 | 322 | 2.0 | 2.0 | 0.00 | 0.00 | 0.00 | 100 | 956.1 |
| 20260508010220 | 49 | 324 | 2.0 | 2.0 | 0.00 | 0.00 | 0.00 | 100 | 956.1 |
| 20260508010118 | 49 | 327 | 2.0 | 2.0 | 0.00 | 0.00 | 0.00 | 100 | 956.2 |
| 20260508005914 | 49 | 339 | 2.0 | 2.0 | 0.00 | 0.00 | 0.00 | 100 | 956.0 |
| 20260508005711 | 49 | 342 | 2.0 | 2.0 | 0.00 | 0.00 | 0.00 | 100 | 956.0 |
| 20260508005611 | 49 | 342 | 1.0 | 2.0 | 0.00 | 0.00 | 0.00 | 100 | 956.0 |
| 20260508005509 | 50 | 339 | 1.0 | 2.0 | 0.00 | 0.00 | 0.00 | 100 | 956.0 |
| 20260508005306 | 50 | 335 | 1.0 | 1.0 | 0.00 | 0.00 | 0.00 | 100 | 956.0 |
| 20260508005102 | 49 | 344 | 1.0 | 1.0 | 0.00 | 0.00 | 0.00 | 100 | 956.0 |
| 20260508005001 | 50 | 355 | 1.0 | 1.0 | 0.00 | 0.00 | 0.00 | 100 | 956.1 |
| 20260508004859 | 49 | 7 | 1.0 | 1.0 | 0.00 | 0.00 | 0.00 | 100 | 956.0 |
| 20260508004655 | 50 | 13 | 0.0 | 1.0 | 0.00 | 0.00 | 0.00 | 100 | 956.0 |
| 20260508004452 | 50 | 0 | 0.0 | 1.0 | 0.00 | 0.00 | 0.00 | 100 | 956.0 |
| 20260508004352 | 50 | 0 | 0.0 | 1.0 | 0.00 | 0.00 | 0.00 | 100 | 956.1 |
| 20260508004249 | 50 | 46 | 0.0 | 1.0 | 0.00 | 0.00 | 0.00 | 100 | 956.0 |
| 20260508004046 | 50 | 21 | 1.0 | 1.0 | 0.00 | 0.00 | 0.00 | 100 | 956.0 |
| 20260508003843 | 50 | 329 | 1.0 | 2.0 | 0.00 | 0.00 | 0.00 | 100 | 956.0 |
| 20260508003742 | 50 | 308 | 1.0 | 2.0 | 0.00 | 0.00 | 0.00 | 100 | 956.0 |
| 20260508003640 | 50 | 301 | 1.0 | 2.0 | 0.00 | 0.00 | 0.00 | 100 | 956.0 |
| 20260508003437 | 50 | 295 | 2.0 | 2.0 | 0.00 | 0.00 | 0.00 | 100 | 955.9 |
| 20260508003234 | 50 | 274 | 2.0 | 2.0 | 0.00 | 0.00 | 0.00 | 100 | 956.0 |
| 20260508003134 | 50 | 268 | 1.0 | 2.0 | 0.00 | 0.00 | 0.00 | 100 | 956.0 |
| 20260508003031 | 50 | 263 | 1.0 | 2.0 | 0.00 | 0.00 | 0.00 | 100 | 956.0 |
| 20260508002816 | 50 | 0 | 0.0 | 2.0 | 0.00 | 0.00 | 0.00 | 100 | 956.2 |
| 20260508002612 | 50 | 0 | 0.0 | 2.0 | 0.00 | 0.00 | 0.00 | 100 | 956.1 |
| 20260508002511 | 50 | 0 | 0.0 | 2.0 | 0.00 | 0.00 | 0.00 | 100 | 956.2 |
| 20260508002409 | 50 | 0 | 0.0 | 2.0 | 0.00 | 0.00 | 0.00 | 100 | 956.1 |
| 20260508002206 | 50 | 0 | 0.0 | 2.0 | 0.00 | 0.00 | 0.00 | 100 | 956.2 |
| 20260508002003 | 50 | 0 | 0.0 | 2.0 | 0.00 | 0.00 | 0.00 | 100 | 956.2 |
| 20260508001902 | 50 | 0 | 0.0 | 2.0 | 0.00 | 0.00 | 0.00 | 100 | 956.3 |
| 20260508001800 | 50 | 0 | 0.0 | 2.0 | 0.00 | 0.00 | 0.00 | 100 | 956.3 |
| 20260508001556 | 50 | 0 | 0.0 | 2.0 | 0.00 | 0.00 | 0.00 | 100 | 956.3 |
| 20260508001354 | 50 | 0 | 0.0 | 2.0 | 0.00 | 0.00 | 0.00 | 100 | 956.3 |
| 20260508001253 | 50 | 0 | 0.0 | 2.0 | 0.00 | 0.00 | 0.00 | 100 | 956.2 |
| 20260508001150 | 50 | 0 | 0.0 | 2.0 | 0.00 | 0.00 | 0.00 | 100 | 956.2 |
| 20260508000947 | 50 | 0 | 0.0 | 2.0 | 0.00 | 0.00 | 0.00 | 100 | 956.2 |
| 20260508000744 | 50 | 0 | 0.0 | 2.0 | 0.00 | 0.00 | 0.00 | 100 | 956.3 |
| 20260508000643 | 50 | 0 | 0.0 | 2.0 | 0.00 | 0.00 | 0.00 | 100 | 956.3 |
| 20260508000541 | 50 | 0 | 0.0 | 2.0 | 0.00 | 0.00 | 0.00 | 100 | 956.3 |
| 20260508000337 | 50 | 0 | 0.0 | 2.0 | 0.00 | 0.00 | 0.00 | 100 | 956.3 |
| 20260508000134 | 50 | 0 | 0.0 | 1.0 | 0.00 | 0.00 | 0.00 | 100 | 956.2 |
| 20260508000033 | 50 | 0 | 0.0 | 1.0 | 0.00 | 0.00 | 0.00 | 100 | 956.1 |
| 20260507235930 | 50 | 0 | 0.0 | 1.0 | 0.00 | 0.00 | 0.00 | 100 | 956.2 |
| 20260507235727 | 50 | 0 | 0.0 | 2.0 | 0.00 | 0.00 | 0.00 | 100 | 956.2 |
| 20260507235524 | 50 | 0 | 0.0 | 2.0 | 0.00 | 0.00 | 0.00 | 100 | 956.2 |
| 20260507235423 | 50 | 0 | 0.0 | 2.0 | 0.00 | 0.00 | 0.00 | 100 | 956.2 |
| 20260507235321 | 50 | 0 | 0.0 | 2.0 | 0.00 | 0.00 | 0.00 | 100 | 956.2 |
| 20260507235118 | 50 | 0 | 0.0 | 2.0 | 0.00 | 0.00 | 0.00 | 100 | 956.2 |
| 20260507234914 | 50 | 0 | 0.0 | 2.0 | 0.00 | 0.00 | 0.00 | 100 | 956.2 |
| 20260507234814 | 50 | 0 | 0.0 | 2.0 | 0.00 | 0.00 | 0.00 | 100 | 956.1 |
| 20260507234711 | 50 | 0 | 0.0 | 2.0 | 0.00 | 0.00 | 0.00 | 100 | 956.2 |
| 20260507234508 | 50 | 0 | 0.0 | 2.0 | 0.00 | 0.00 | 0.00 | 100 | 956.1 |
| 20260507234305 | 50 | 0 | 1.0 | 3.0 | 0.00 | 0.00 | 0.00 | 100 | 956.2 |
| 20260507234204 | 50 | 170 | 1.0 | 3.0 | 0.00 | 0.00 | 0.00 | 100 | 956.2 |
| 20260507234102 | 50 | 175 | 1.0 | 3.0 | 0.00 | 0.00 | 0.00 | 100 | 956.2 |
| 20260507233858 | 50 | 149 | 1.0 | 3.0 | 0.00 | 0.00 | 0.00 | 100 | 956.2 |
| 20260507233655 | 50 | 84 | 2.0 | 4.0 | 0.00 | 0.00 | 0.00 | 100 | 956.2 |
| 20260507233555 | 50 | 75 | 2.0 | 4.0 | 0.00 | 0.00 | 0.00 | 100 | 956.2 |
| 20260507233452 | 50 | 80 | 2.0 | 4.0 | 0.00 | 0.00 | 0.00 | 100 | 956.1 |
| 20260507233249 | 50 | 97 | 2.0 | 4.0 | 0.00 | 0.00 | 0.00 | 100 | 956.3 |
| 20260507233046 | 50 | 108 | 3.0 | 4.0 | 0.00 | 0.00 | 0.00 | 100 | 956.3 |
| 20260507232945 | 50 | 108 | 3.0 | 4.0 | 0.00 | 0.00 | 0.00 | 100 | 956.3 |
| 20260507232842 | 50 | 109 | 2.0 | 4.0 | 0.00 | 0.00 | 0.00 | 100 | 956.4 |
| 20260507232639 | 50 | 110 | 1.0 | 4.0 | 0.00 | 0.00 | 0.00 | 100 | 956.4 |
| 20260507232436 | 50 | 0 | 0.0 | 2.0 | 0.00 | 0.00 | 0.00 | 100 | 956.5 |
| 20260507232336 | 50 | 0 | 0.0 | 2.0 | 0.00 | 0.00 | 0.00 | 100 | 956.5 |
| 20260507232234 | 50 | 0 | 0.0 | 2.0 | 0.00 | 0.00 | 0.00 | 100 | 956.6 |
| 20260507232030 | 50 | 0 | 0.0 | 3.0 | 0.00 | 0.00 | 0.00 | 100 | 956.6 |
| 20260507231827 | 51 | 189 | 1.0 | 3.0 | 0.00 | 0.00 | 0.00 | 100 | 956.5 |
| 20260507231727 | 51 | 180 | 1.0 | 4.0 | 0.00 | 0.00 | 0.00 | 100 | 956.4 |
| 20260507231624 | 51 | 174 | 1.0 | 4.0 | 0.00 | 0.00 | 0.00 | 100 | 956.5 |
| 20260507231421 | 51 | 168 | 2.0 | 4.0 | 0.00 | 0.00 | 0.00 | 100 | 956.5 |
| 20260507231218 | 51 | 169 | 2.0 | 3.0 | 0.00 | 0.00 | 0.00 | 100 | 956.5 |
| 20260507231117 | 51 | 173 | 1.0 | 3.0 | 0.00 | 0.00 | 0.00 | 100 | 956.5 |
| 20260507231015 | 51 | 0 | 0.0 | 2.0 | 0.00 | 0.00 | 0.00 | 100 | 956.5 |
| 20260507230812 | 51 | 0 | 0.0 | 2.0 | 0.00 | 0.00 | 0.00 | 100 | 956.5 |
| 20260507230609 | 51 | 269 | 1.0 | 2.0 | 0.00 | 0.00 | 0.00 | 100 | 956.4 |
| 20260507230508 | 51 | 272 | 1.0 | 2.0 | 0.00 | 0.00 | 0.00 | 100 | 956.5 |
| 20260507230406 | 51 | 269 | 1.0 | 2.0 | 0.00 | 0.00 | 0.00 | 100 | 956.4 |
| 20260507230203 | 51 | 260 | 1.0 | 2.0 | 0.00 | 0.00 | 0.00 | 100 | 956.4 |
| 20260507230000 | 51 | 271 | 1.0 | 2.0 | 0.00 | 0.00 | 0.00 | 100 | 956.3 |
| 20260507225859 | 51 | 279 | 1.0 | 3.0 | 0.00 | 0.00 | 0.00 | 100 | 956.3 |
| 20260507225757 | 51 | 278 | 1.0 | 3.0 | 0.00 | 0.00 | 0.00 | 100 | 956.3 |
| 20260507225554 | 51 | 294 | 1.0 | 3.0 | 0.00 | 0.00 | 0.00 | 100 | 956.3 |
| 20260507225351 | 51 | 306 | 3.0 | 5.0 | 0.00 | 0.00 | 0.00 | 100 | 956.3 |
| 20260507225251 | 51 | 310 | 3.0 | 5.0 | 0.00 | 0.00 | 0.00 | 100 | 956.3 |
| 20260507225148 | 51 | 313 | 4.0 | 5.0 | 0.00 | 0.00 | 0.00 | 100 | 956.2 |
| 20260507224944 | 51 | 318 | 4.0 | 5.0 | 0.00 | 0.00 | 0.00 | 100 | 956.3 |
| 20260507224741 | 51 | 310 | 4.0 | 5.0 | 0.00 | 0.00 | 0.00 | 100 | 956.3 |
| 20260507224640 | 51 | 302 | 4.0 | 5.0 | 0.00 | 0.00 | 0.00 | 100 | 956.3 |
| 20260507224538 | 51 | 289 | 4.0 | 5.0 | 0.00 | 0.00 | 0.00 | 100 | 956.2 |
| 20260507224335 | 51 | 276 | 3.0 | 4.0 | 0.00 | 0.00 | 0.00 | 100 | 956.3 |
| 20260507224132 | 51 | 278 | 2.0 | 4.0 | 0.00 | 0.00 | 0.00 | 100 | 956.3 |
| 20260507224030 | 51 | 295 | 2.0 | 4.0 | 0.00 | 0.00 | 0.00 | 100 | 956.2 |
| 20260507223929 | 52 | 317 | 2.0 | 4.0 | 0.00 | 0.00 | 0.00 | 100 | 956.1 |
| 20260507223726 | 52 | 320 | 2.0 | 4.0 | 0.00 | 0.00 | 0.00 | 100 | 956.2 |
| 20260507223524 | 52 | 303 | 2.0 | 4.0 | 0.00 | 0.00 | 0.00 | 100 | 956.3 |
| 20260507223423 | 51 | 289 | 2.0 | 5.0 | 0.00 | 0.00 | 0.00 | 100 | 956.4 |
| 20260507223320 | 51 | 282 | 3.0 | 6.0 | 0.00 | 0.00 | 0.00 | 100 | 956.3 |
| 20260507223118 | 51 | 271 | 4.0 | 6.0 | 0.00 | 0.00 | 0.00 | 100 | 956.4 |
| 20260507222914 | 51 | 265 | 4.0 | 6.0 | 0.00 | 0.00 | 0.00 | 100 | 956.4 |
| 20260507222813 | 51 | 265 | 3.0 | 7.0 | 0.00 | 0.00 | 0.00 | 100 | 956.4 |
| 20260507222711 | 51 | 268 | 4.0 | 7.0 | 0.00 | 0.00 | 0.00 | 100 | 956.3 |
| 20260507222509 | 51 | 270 | 4.0 | 7.0 | 0.00 | 0.00 | 0.00 | 100 | 956.4 |
| 20260507222306 | 51 | 288 | 4.0 | 6.0 | 0.00 | 0.00 | 0.00 | 100 | 956.3 |
| 20260507222204 | 51 | 292 | 4.0 | 6.0 | 0.00 | 0.00 | 0.00 | 100 | 956.3 |
| 20260507222102 | 51 | 294 | 4.0 | 6.0 | 0.00 | 0.00 | 0.00 | 100 | 956.2 |
| 20260507221859 | 51 | 300 | 5.0 | 8.0 | 0.00 | 0.00 | 0.00 | 100 | 956.2 |
| 20260507221655 | 51 | 301 | 5.0 | 8.0 | 0.00 | 0.00 | 0.00 | 100 | 956.2 |
| 20260507221554 | 51 | 301 | 5.0 | 7.0 | 0.00 | 0.00 | 0.00 | 100 | 956.1 |
| 20260507221451 | 51 | 302 | 4.0 | 7.0 | 0.00 | 0.00 | 0.00 | 100 | 956.2 |
| 20260507221249 | 51 | 303 | 4.0 | 7.0 | 0.00 | 0.00 | 0.00 | 100 | 956.1 |
| 20260507221045 | 51 | 301 | 4.0 | 6.0 | 0.00 | 0.00 | 0.00 | 100 | 956.1 |
| 20260507220945 | 51 | 303 | 4.0 | 5.0 | 0.00 | 0.00 | 0.00 | 100 | 956.0 |
| 20260507220843 | 51 | 305 | 4.0 | 5.0 | 0.00 | 0.00 | 0.00 | 100 | 956.0 |
| 20260507220640 | 51 | 310 | 4.0 | 5.0 | 0.00 | 0.00 | 0.00 | 100 | 956.0 |
| 20260507220437 | 51 | 300 | 4.0 | 8.0 | 0.00 | 0.00 | 0.00 | 100 | 956.0 |
| 20260507220336 | 51 | 294 | 5.0 | 8.0 | 0.00 | 0.00 | 0.00 | 100 | 956.0 |
| 20260507220233 | 51 | 291 | 5.0 | 8.0 | 0.00 | 0.00 | 0.00 | 100 | 956.0 |
| 20260507220030 | 51 | 296 | 6.0 | 8.0 | 0.00 | 0.00 | 0.00 | 100 | 956.0 |
| 20260507215827 | 51 | 301 | 6.0 | 9.0 | 0.00 | 0.00 | 0.00 | 100 | 955.9 |
| 20260507215726 | 51 | 301 | 6.0 | 9.0 | 0.00 | 0.00 | 0.00 | 100 | 956.0 |
| 20260507215624 | 51 | 303 | 6.0 | 10.0 | 0.00 | 0.00 | 0.00 | 100 | 956.1 |
| 20260507215420 | 51 | 302 | 8.0 | 11.0 | 0.00 | 0.00 | 0.00 | 100 | 955.9 |
| 20260507215217 | 51 | 303 | 6.0 | 11.0 | 0.00 | 0.00 | 0.00 | 100 | 955.8 |
| 20260507215116 | 51 | 300 | 6.0 | 10.0 | 0.00 | 0.00 | 0.00 | 100 | 955.9 |
| 20260507215014 | 51 | 298 | 5.0 | 7.0 | 0.00 | 0.00 | 0.00 | 100 | 955.9 |
| 20260507214801 | 51 | 295 | 6.0 | 8.0 | 0.00 | 0.00 | 0.00 | 100 | 955.8 |
| 20260507214557 | 51 | 305 | 6.0 | 8.0 | 0.00 | 0.00 | 0.00 | 100 | 956.0 |
| 20260507214457 | 51 | 308 | 5.0 | 8.0 | 0.00 | 0.00 | 0.00 | 100 | 956.0 |
| 20260507214354 | 51 | 321 | 4.0 | 8.0 | 0.00 | 0.00 | 0.00 | 100 | 956.1 |
| 20260507214151 | 51 | 327 | 2.0 | 4.0 | 0.00 | 0.00 | 0.00 | 100 | 956.2 |
| 20260507213948 | 51 | 0 | 1.0 | 2.0 | 0.00 | 0.00 | 0.00 | 100 | 956.1 |
| 20260507213847 | 51 | 0 | 0.0 | 2.0 | 0.00 | 0.00 | 0.00 | 100 | 956.1 |
| 20260507213744 | 51 | 0 | 0.0 | 2.0 | 0.00 | 0.00 | 0.00 | 100 | 956.1 |
| 20260507213541 | 51 | 0 | 0.0 | 1.0 | 0.00 | 0.00 | 0.00 | 100 | 956.1 |
| 20260507213338 | 51 | 0 | 0.0 | 1.0 | 0.00 | 0.00 | 0.00 | 100 | 956.1 |
| 20260507213237 | 51 | 0 | 0.0 | 1.0 | 0.00 | 0.00 | 0.00 | 100 | 956.1 |
| 20260507213135 | 51 | 0 | 0.0 | 1.0 | 0.00 | 0.00 | 0.00 | 100 | 956.1 |
| 20260507212931 | 51 | 0 | 0.0 | 1.0 | 0.00 | 0.00 | 0.00 | 100 | 956.1 |
| 20260507212729 | 51 | 0 | 0.0 | 1.0 | 0.00 | 0.00 | 0.00 | 100 | 956.1 |
| 20260507212628 | 51 | 0 | 0.0 | 1.0 | 0.00 | 0.00 | 0.00 | 100 | 956.1 |
| 20260507212525 | 51 | 0 | 0.0 | 2.0 | 0.00 | 0.00 | 0.00 | 100 | 956.1 |
| 20260507212323 | 51 | 0 | 0.0 | 2.0 | 0.00 | 0.00 | 0.00 | 100 | 956.0 |
| 20260507212120 | 51 | 0 | 0.0 | 2.0 | 0.00 | 0.00 | 0.00 | 100 | 955.9 |
| 20260507212019 | 51 | 0 | 0.0 | 2.0 | 0.00 | 0.00 | 0.00 | 100 | 955.9 |
| 20260507211917 | 51 | 0 | 0.0 | 2.0 | 0.00 | 0.00 | 0.00 | 100 | 955.9 |
| 20260507211714 | 51 | 0 | 0.0 | 2.0 | 0.00 | 0.00 | 0.00 | 100 | 955.8 |
| 20260507211511 | 51 | 0 | 0.0 | 1.0 | 0.00 | 0.00 | 0.00 | 100 | 955.9 |
| 20260507211411 | 51 | 0 | 0.0 | 1.0 | 0.00 | 0.00 | 0.00 | 100 | 955.9 |
| 20260507211308 | 51 | 0 | 0.0 | 1.0 | 0.00 | 0.00 | 0.00 | 100 | 955.8 |
| 20260507211105 | 51 | 0 | 0.0 | 2.0 | 0.00 | 0.00 | 0.00 | 100 | 955.9 |
| 20260507210902 | 51 | 175 | 0.0 | 2.0 | 0.00 | 0.00 | 0.00 | 100 | 955.8 |
| 20260507210801 | 51 | 175 | 1.0 | 3.0 | 0.00 | 0.00 | 0.00 | 100 | 955.7 |
| 20260507210659 | 51 | 176 | 1.0 | 3.0 | 0.00 | 0.00 | 0.00 | 100 | 955.7 |
| 20260507210456 | 51 | 181 | 0.0 | 3.0 | 0.00 | 0.00 | 0.00 | 100 | 955.7 |
| 20260507210252 | 51 | 0 | 0.0 | 1.0 | 0.00 | 0.00 | 0.00 | 100 | 955.7 |
| 20260507210151 | 51 | 0 | 0.0 | 1.0 | 0.00 | 0.00 | 0.00 | 100 | 955.6 |
| 20260507210049 | 51 | 0 | 0.0 | 1.0 | 0.00 | 0.00 | 0.00 | 100 | 955.7 |
| 20260507205846 | 51 | 0 | 0.0 | 1.0 | 0.00 | 0.00 | 0.00 | 100 | 955.7 |
| 20260507205642 | 51 | 276 | 1.0 | 2.0 | 0.00 | 0.00 | 0.00 | 100 | 955.7 |
| 20260507205541 | 51 | 279 | 1.0 | 2.0 | 0.00 | 0.00 | 0.00 | 100 | 955.6 |
| 20260507205439 | 51 | 279 | 1.0 | 2.0 | 0.00 | 0.00 | 0.00 | 100 | 955.7 |
| 20260507205236 | 51 | 0 | 0.0 | 1.0 | 0.00 | 0.00 | 0.00 | 100 | 955.6 |
| 20260507205033 | 51 | 0 | 0.0 | 2.0 | 0.00 | 0.00 | 0.00 | 100 | 955.6 |
| 20260507204931 | 51 | 0 | 0.0 | 2.0 | 0.00 | 0.00 | 0.00 | 100 | 955.6 |
| 20260507204829 | 51 | 0 | 0.0 | 2.0 | 0.00 | 0.00 | 0.00 | 100 | 955.7 |
| 20260507204626 | 51 | 247 | 1.0 | 2.0 | 0.00 | 0.00 | 0.00 | 100 | 955.7 |
| 20260507204423 | 51 | 288 | 1.0 | 2.0 | 0.00 | 0.00 | 0.00 | 100 | 955.7 |
| 20260507204323 | 51 | 305 | 2.0 | 2.0 | 0.00 | 0.00 | 0.00 | 100 | 955.6 |
| 20260507204220 | 51 | 328 | 2.0 | 3.0 | 0.00 | 0.00 | 0.00 | 100 | 955.6 |
| 20260507204017 | 51 | 7 | 2.0 | 3.0 | 0.00 | 0.00 | 0.00 | 100 | 955.4 |
| 20260507203813 | 51 | 22 | 2.0 | 3.0 | 0.00 | 0.00 | 0.00 | 100 | 955.5 |
| 20260507203713 | 51 | 21 | 2.0 | 3.0 | 0.00 | 0.00 | 0.00 | 100 | 955.6 |
| 20260507203610 | 51 | 12 | 2.0 | 3.0 | 0.00 | 0.00 | 0.00 | 100 | 955.6 |
| 20260507203407 | 51 | 302 | 1.0 | 2.0 | 0.00 | 0.00 | 0.00 | 100 | 955.5 |
| 20260507203203 | 51 | 295 | 1.0 | 2.0 | 0.00 | 0.00 | 0.00 | 100 | 955.5 |
| 20260507203103 | 51 | 299 | 1.0 | 2.0 | 0.00 | 0.00 | 0.00 | 100 | 955.6 |
| 20260507203000 | 51 | 0 | 0.0 | 2.0 | 0.00 | 0.00 | 0.00 | 100 | 955.6 |
| 20260507202758 | 51 | 0 | 0.0 | 1.0 | 0.00 | 0.00 | 0.00 | 100 | 955.5 |
| 20260507202554 | 51 | 0 | 0.0 | 1.0 | 0.00 | 0.00 | 0.00 | 100 | 955.5 |
| 20260507202453 | 51 | 0 | 0.0 | 1.0 | 0.00 | 0.00 | 0.00 | 100 | 955.4 |
| 20260507202351 | 51 | 0 | 0.0 | 1.0 | 0.00 | 0.00 | 0.00 | 100 | 955.5 |
| 20260507202148 | 51 | 0 | 0.0 | 2.0 | 0.00 | 0.00 | 0.00 | 100 | 955.5 |
| 20260507201944 | 51 | 0 | 1.0 | 2.0 | 0.00 | 0.00 | 0.00 | 100 | 955.4 |
| 20260507201843 | 51 | 37 | 1.0 | 3.0 | 0.00 | 0.00 | 0.00 | 100 | 955.5 |
| 20260507201741 | 51 | 31 | 2.0 | 3.0 | 0.00 | 0.00 | 0.00 | 100 | 955.4 |
| 20260507201537 | 50 | 44 | 2.0 | 3.0 | 0.00 | 0.00 | 0.00 | 100 | 955.4 |
| 20260507201334 | 50 | 58 | 1.0 | 3.0 | 0.00 | 0.00 | 0.00 | 100 | 955.4 |
| 20260507201233 | 50 | 0 | 0.0 | 2.0 | 0.00 | 0.00 | 0.00 | 100 | 955.4 |
| 20260507201131 | 50 | 0 | 0.0 | 2.0 | 0.00 | 0.00 | 0.00 | 100 | 955.4 |
| 20260507200928 | 50 | 0 | 0.0 | 2.0 | 0.00 | 0.00 | 0.00 | 100 | 955.4 |
| 20260507200726 | 50 | 0 | 0.0 | 3.0 | 0.00 | 0.00 | 0.00 | 100 | 955.4 |
| 20260507200625 | 50 | 0 | 0.0 | 3.0 | 0.00 | 0.00 | 0.00 | 100 | 955.4 |
| 20260507200523 | 50 | 0 | 0.0 | 3.0 | 0.00 | 0.00 | 0.00 | 100 | 955.4 |
| 20260507200320 | 50 | 288 | 2.0 | 3.0 | 0.00 | 0.00 | 0.00 | 100 | 955.4 |
| 20260507200117 | 50 | 314 | 3.0 | 6.0 | 0.00 | 0.00 | 0.00 | 100 | 955.4 |
| 20260507200016 | 50 | 320 | 3.0 | 6.0 | 0.00 | 0.00 | 0.00 | 100 | 955.4 |
| 20260507195914 | 50 | 318 | 3.0 | 6.0 | 0.00 | 0.00 | 0.00 | 100 | 955.4 |
| 20260507195710 | 50 | 313 | 4.0 | 7.0 | 0.00 | 0.00 | 0.00 | 100 | 955.3 |
| 20260507195507 | 50 | 334 | 4.0 | 7.0 | 0.00 | 0.00 | 0.00 | 100 | 955.3 |
| 20260507195406 | 50 | 341 | 4.0 | 7.0 | 0.00 | 0.00 | 0.00 | 100 | 955.4 |
| 20260507195305 | 50 | 348 | 5.0 | 8.0 | 0.00 | 0.00 | 0.00 | 100 | 955.4 |
| 20260507195100 | 49 | 342 | 6.0 | 11.0 | 0.00 | 0.00 | 0.00 | 100 | 955.4 |
| 20260507194857 | 49 | 332 | 6.0 | 11.0 | 0.00 | 0.00 | 0.00 | 100 | 955.5 |
| 20260507194756 | 50 | 330 | 5.0 | 11.0 | 0.00 | 0.00 | 0.00 | 100 | 955.5 |
| 20260507194654 | 50 | 332 | 4.0 | 11.0 | 0.00 | 0.00 | 0.00 | 100 | 955.5 |
| 20260507194450 | 50 | 331 | 3.0 | 6.0 | 0.00 | 0.00 | 0.00 | 100 | 955.3 |
| 20260507194247 | 50 | 329 | 2.0 | 3.0 | 0.00 | 0.00 | 0.00 | 100 | 955.1 |
| 20260507194146 | 50 | 325 | 2.0 | 3.0 | 0.00 | 0.00 | 0.00 | 100 | 955.1 |
| 20260507194044 | 50 | 322 | 1.0 | 2.0 | 0.00 | 0.00 | 0.00 | 100 | 955.1 |
| 20260507193841 | 51 | 0 | 0.0 | 1.0 | 0.00 | 0.00 | 0.00 | 100 | 955.1 |
| 20260507193637 | 51 | 0 | 0.0 | 1.0 | 0.00 | 0.00 | 0.00 | 100 | 955.1 |
| 20260507193536 | 50 | 0 | 0.0 | 1.0 | 0.00 | 0.00 | 0.00 | 100 | 955.1 |
| 20260507193434 | 50 | 0 | 0.0 | 1.0 | 0.00 | 0.00 | 0.00 | 100 | 955.1 |
| 20260507193231 | 51 | 0 | 0.0 | 1.0 | 0.00 | 0.00 | 0.00 | 100 | 955.0 |
| 20260507193028 | 51 | 0 | 0.0 | 1.0 | 0.00 | 0.00 | 0.00 | 100 | 955.1 |
| 20260507192927 | 51 | 0 | 0.0 | 1.0 | 0.00 | 0.00 | 0.00 | 100 | 955.1 |
| 20260507192825 | 50 | 0 | 0.0 | 1.0 | 0.00 | 0.00 | 0.00 | 100 | 955.2 |
| 20260507192621 | 50 | 0 | 0.0 | 1.0 | 0.00 | 0.00 | 0.00 | 100 | 955.2 |
| 20260507192419 | 50 | 0 | 0.0 | 1.0 | 0.00 | 0.00 | 0.00 | 100 | 955.1 |
| 20260507192318 | 50 | 0 | 0.0 | 1.0 | 0.00 | 0.00 | 0.00 | 100 | 955.1 |
| 20260507192215 | 50 | 0 | 0.0 | 1.0 | 0.00 | 0.00 | 0.00 | 100 | 955.1 |
| 20260507192011 | 50 | 303 | 1.0 | 2.0 | 0.00 | 0.00 | 0.00 | 100 | 955.1 |
| 20260507191808 | 50 | 313 | 1.0 | 2.0 | 0.00 | 0.00 | 0.00 | 100 | 955.1 |
| 20260507191707 | 50 | 309 | 1.0 | 2.0 | 0.00 | 0.00 | 0.00 | 100 | 955.0 |
| 20260507191605 | 50 | 306 | 1.0 | 2.0 | 0.00 | 0.00 | 0.00 | 100 | 955.1 |
| 20260507191402 | 50 | 306 | 2.0 | 4.0 | 0.00 | 0.00 | 0.00 | 100 | 955.1 |
| 20260507191159 | 50 | 306 | 3.0 | 4.0 | 0.00 | 0.00 | 0.00 | 100 | 955.0 |
| 20260507191058 | 50 | 303 | 3.0 | 4.0 | 0.00 | 0.00 | 0.00 | 100 | 955.0 |
| 20260507190943 | 50 | 302 | 2.0 | 4.0 | 0.00 | 0.00 | 0.00 | 100 | 955.1 |
| 20260507190739 | 50 | 306 | 2.0 | 3.0 | 0.00 | 0.00 | 0.00 | 100 | 955.1 |
| 20260507190536 | 50 | 315 | 2.0 | 4.0 | 0.00 | 0.00 | 0.00 | 100 | 955.1 |
| 20260507190435 | 50 | 319 | 2.0 | 4.0 | 0.00 | 0.00 | 0.00 | 100 | 955.0 |
| 20260507190333 | 50 | 323 | 2.0 | 4.0 | 0.00 | 0.00 | 0.00 | 100 | 955.0 |
| 20260507190130 | 50 | 330 | 2.0 | 4.0 | 0.00 | 0.00 | 0.00 | 100 | 955.0 |
| 20260507185927 | 50 | 328 | 2.0 | 4.0 | 0.00 | 0.00 | 0.00 | 100 | 955.0 |
| 20260507185826 | 50 | 329 | 2.0 | 4.0 | 0.00 | 0.00 | 0.00 | 100 | 955.0 |
| 20260507185724 | 50 | 331 | 2.0 | 4.0 | 0.00 | 0.00 | 0.00 | 100 | 955.0 |
| 20260507185520 | 50 | 333 | 1.0 | 2.0 | 0.00 | 0.00 | 0.00 | 100 | 954.9 |
| 20260507185317 | 50 | 332 | 1.0 | 2.0 | 0.00 | 0.00 | 0.00 | 100 | 954.8 |
| 20260507185216 | 50 | 337 | 1.0 | 2.0 | 0.00 | 0.00 | 0.00 | 100 | 954.8 |
| 20260507185114 | 50 | 343 | 2.0 | 3.0 | 0.00 | 0.00 | 0.00 | 100 | 954.7 |
| 20260507184911 | 50 | 355 | 2.0 | 3.0 | 0.00 | 0.00 | 0.00 | 100 | 954.8 |
| 20260507184708 | 50 | 349 | 3.0 | 4.0 | 0.00 | 0.00 | 0.00 | 100 | 954.7 |
| 20260507184607 | 50 | 342 | 3.0 | 4.0 | 0.00 | 0.00 | 0.00 | 100 | 954.7 |
| 20260507184505 | 50 | 331 | 2.0 | 4.0 | 0.00 | 0.00 | 0.00 | 100 | 954.7 |
| 20260507184302 | 51 | 305 | 1.0 | 3.0 | 0.00 | 0.00 | 0.00 | 100 | 954.7 |
| 20260507184059 | 51 | 0 | 1.0 | 3.0 | 0.00 | 0.00 | 0.00 | 100 | 954.7 |
| 20260507183957 | 51 | 187 | 1.0 | 3.0 | 0.00 | 0.00 | 0.00 | 100 | 954.7 |
| 20260507183855 | 51 | 184 | 1.0 | 3.0 | 0.00 | 0.00 | 0.00 | 100 | 954.6 |
| 20260507183652 | 51 | 171 | 2.0 | 4.0 | 0.00 | 0.00 | 0.00 | 100 | 954.5 |
| 20260507183449 | 51 | 168 | 2.0 | 4.0 | 0.00 | 0.00 | 0.00 | 100 | 954.4 |
| 20260507183349 | 51 | 171 | 2.0 | 4.0 | 0.00 | 0.00 | 0.00 | 100 | 954.5 |
| 20260507183246 | 51 | 178 | 1.0 | 3.0 | 0.00 | 0.00 | 0.00 | 100 | 954.5 |
| 20260507183042 | 51 | 0 | 1.0 | 3.0 | 0.00 | 0.00 | 0.00 | 100 | 954.4 |
| 20260507182839 | 51 | 132 | 1.0 | 3.0 | 0.00 | 0.00 | 0.00 | 100 | 954.6 |
| 20260507182739 | 51 | 130 | 2.0 | 3.0 | 0.00 | 0.00 | 0.00 | 100 | 954.5 |
| 20260507182637 | 51 | 138 | 2.0 | 3.0 | 0.00 | 0.00 | 0.00 | 100 | 954.5 |
| 20260507182433 | 51 | 149 | 2.0 | 3.0 | 0.00 | 0.00 | 0.00 | 100 | 954.5 |
| 20260507182230 | 51 | 148 | 2.0 | 4.0 | 0.00 | 0.00 | 0.00 | 100 | 954.6 |
| 20260507182130 | 51 | 143 | 2.0 | 4.0 | 0.00 | 0.00 | 0.00 | 100 | 954.6 |
| 20260507182027 | 51 | 144 | 2.0 | 3.0 | 0.00 | 0.00 | 0.00 | 100 | 954.4 |
| 20260507181824 | 51 | 0 | 0.0 | 3.0 | 0.00 | 0.00 | 0.00 | 100 | 954.5 |
| 20260507181620 | 51 | 0 | 0.0 | 1.0 | 0.00 | 0.00 | 0.00 | 100 | 954.5 |
| 20260507181519 | 51 | 0 | 0.0 | 1.0 | 0.00 | 0.00 | 0.00 | 100 | 954.5 |
| 20260507181417 | 51 | 0 | 0.0 | 1.0 | 0.00 | 0.00 | 0.00 | 100 | 954.3 |
| 20260507181214 | 51 | 323 | 1.0 | 2.0 | 0.00 | 0.00 | 0.00 | 100 | 954.4 |
| 20260507181011 | 51 | 319 | 1.0 | 3.0 | 0.00 | 0.00 | 0.00 | 100 | 954.4 |
| 20260507180909 | 51 | 325 | 2.0 | 3.0 | 0.00 | 0.00 | 0.00 | 100 | 954.4 |
| 20260507180807 | 51 | 344 | 1.0 | 3.0 | 0.00 | 0.00 | 0.00 | 100 | 954.4 |
| 20260507180604 | 51 | 48 | 2.0 | 3.0 | 0.00 | 0.00 | 0.00 | 100 | 954.3 |
| 20260507180400 | 51 | 69 | 2.0 | 3.0 | 0.00 | 0.00 | 0.00 | 100 | 954.3 |
| 20260507180300 | 51 | 68 | 2.0 | 3.0 | 0.00 | 0.00 | 0.00 | 100 | 954.3 |
| 20260507180157 | 51 | 68 | 2.0 | 3.0 | 0.00 | 0.00 | 0.00 | 100 | 954.4 |
| 20260507175954 | 51 | 60 | 2.0 | 3.0 | 0.00 | 0.00 | 0.00 | 100 | 954.5 |
| 20260507175751 | 52 | 80 | 2.0 | 3.0 | 0.00 | 0.00 | 0.00 | 100 | 954.2 |
| 20260507175649 | 52 | 84 | 1.0 | 3.0 | 0.00 | 0.00 | 0.00 | 100 | 954.2 |
| 20260507175547 | 52 | 98 | 1.0 | 3.0 | 0.00 | 0.00 | 0.00 | 100 | 954.2 |
| 20260507175344 | 52 | 0 | 0.0 | 2.0 | 0.00 | 0.00 | 0.00 | 100 | 954.3 |
| 20260507175140 | 52 | 0 | 0.0 | 1.0 | 0.00 | 0.00 | 0.00 | 100 | 954.3 |
| 20260507175040 | 52 | 0 | 0.0 | 1.0 | 0.00 | 0.00 | 0.00 | 100 | 954.3 |
| 20260507174937 | 52 | 0 | 0.0 | 1.0 | 0.00 | 0.00 | 0.00 | 100 | 954.2 |
| 20260507174734 | 52 | 0 | 0.0 | 1.0 | 0.00 | 0.00 | 0.00 | 100 | 954.3 |
| 20260507174531 | 52 | 0 | 0.0 | 1.0 | 0.00 | 0.00 | 0.00 | 100 | 954.2 |
| 20260507174430 | 53 | 0 | 0.0 | 1.0 | 0.00 | 0.00 | 0.00 | 100 | 954.2 |
| 20260507174328 | 53 | 0 | 0.0 | 3.0 | 0.00 | 0.00 | 0.00 | 100 | 954.2 |
| 20260507174125 | 52 | 0 | 0.0 | 3.0 | 0.00 | 0.00 | 0.00 | 100 | 954.3 |
| 20260507173922 | 52 | 0 | 0.0 | 2.0 | 0.00 | 0.00 | 0.00 | 100 | 954.4 |
| 20260507173822 | 52 | 0 | 0.0 | 2.0 | 0.00 | 0.00 | 0.00 | 100 | 954.4 |
| 20260507173719 | 52 | 172 | 1.0 | 4.0 | 0.00 | 0.00 | 0.00 | 100 | 954.3 |
| 20260507173516 | 52 | 169 | 1.0 | 4.0 | 0.00 | 0.00 | 0.00 | 100 | 954.2 |
| 20260507173313 | 52 | 174 | 1.0 | 4.0 | 0.00 | 0.00 | 0.00 | 100 | 954.3 |
| 20260507173212 | 52 | 174 | 1.0 | 4.0 | 0.00 | 0.00 | 0.00 | 100 | 954.3 |
| 20260507173110 | 52 | 175 | 1.0 | 5.0 | 0.00 | 0.00 | 0.00 | 100 | 954.3 |
| 20260507172907 | 52 | 175 | 1.0 | 5.0 | 0.00 | 0.00 | 0.00 | 100 | 954.4 |
| 20260507172704 | 52 | 180 | 1.0 | 3.0 | 0.00 | 0.00 | 0.00 | 100 | 954.3 |
| 20260507172603 | 52 | 0 | 1.0 | 3.0 | 0.00 | 0.00 | 0.00 | 100 | 954.3 |
| 20260507172501 | 52 | 0 | 0.0 | 3.0 | 0.00 | 0.00 | 0.00 | 100 | 954.3 |
| 20260507172258 | 52 | 0 | 1.0 | 3.0 | 0.00 | 0.00 | 0.00 | 100 | 954.3 |
| 20260507172054 | 52 | 172 | 1.0 | 4.0 | 0.00 | 0.00 | 0.00 | 100 | 954.2 |
| 20260507171953 | 52 | 172 | 1.0 | 4.0 | 0.00 | 0.00 | 0.00 | 100 | 954.2 |
| 20260507171851 | 52 | 171 | 2.0 | 4.0 | 0.00 | 0.00 | 0.00 | 100 | 954.2 |
| 20260507171647 | 52 | 175 | 2.0 | 6.0 | 0.00 | 0.00 | 0.00 | 100 | 954.2 |
| 20260507171445 | 52 | 176 | 2.0 | 7.0 | 0.00 | 0.00 | 0.00 | 100 | 954.2 |
| 20260507171344 | 52 | 170 | 3.0 | 8.0 | 0.00 | 0.00 | 0.00 | 100 | 954.2 |
| 20260507171241 | 52 | 166 | 5.0 | 10.0 | 0.00 | 0.00 | 0.00 | 100 | 954.2 |
| 20260507171038 | 52 | 163 | 7.0 | 11.0 | 0.00 | 0.00 | 0.00 | 100 | 954.2 |
| 20260507170834 | 51 | 159 | 7.0 | 11.0 | 0.00 | 0.00 | 0.00 | 100 | 954.2 |
| 20260507170734 | 51 | 158 | 6.0 | 11.0 | 0.00 | 0.00 | 0.00 | 100 | 954.2 |
| 20260507170631 | 51 | 156 | 5.0 | 11.0 | 0.00 | 0.00 | 0.00 | 100 | 954.3 |
| 20260507170428 | 51 | 156 | 4.0 | 8.0 | 0.00 | 0.00 | 0.00 | 100 | 954.1 |
| 20260507170225 | 51 | 164 | 2.0 | 5.0 | 0.00 | 0.00 | 0.00 | 100 | 954.1 |
| 20260507170124 | 51 | 164 | 2.0 | 4.0 | 0.00 | 0.00 | 0.00 | 100 | 954.1 |
| 20260507170022 | 51 | 155 | 2.0 | 5.0 | 0.00 | 0.00 | 0.00 | 100 | 954.2 |
| 20260507165818 | 51 | 139 | 3.0 | 5.0 | 0.00 | 0.00 | 0.00 | 100 | 954.1 |
| 20260507165616 | 51 | 142 | 2.0 | 4.0 | 0.00 | 0.00 | 0.00 | 100 | 954.1 |
| 20260507165514 | 51 | 147 | 2.0 | 4.0 | 0.00 | 0.00 | 0.00 | 100 | 954.1 |
| 20260507165412 | 51 | 152 | 2.0 | 4.0 | 0.00 | 0.00 | 0.00 | 100 | 954.0 |
| 20260507165208 | 51 | 159 | 2.0 | 8.0 | 0.00 | 0.00 | 0.00 | 100 | 954.1 |
| 20260507165005 | 51 | 152 | 5.0 | 11.0 | 0.00 | 0.00 | 0.00 | 100 | 954.1 |
| 20260507164905 | 51 | 150 | 6.0 | 11.0 | 0.00 | 0.00 | 0.00 | 100 | 954.0 |
| 20260507164802 | 51 | 146 | 6.0 | 11.0 | 0.00 | 0.00 | 0.00 | 100 | 954.0 |
| 20260507164559 | 51 | 146 | 5.0 | 9.0 | 0.00 | 0.00 | 0.00 | 100 | 953.9 |
| 20260507164356 | 51 | 140 | 6.0 | 9.0 | 0.00 | 0.00 | 0.00 | 100 | 953.9 |
| 20260507164256 | 51 | 137 | 6.0 | 9.0 | 0.00 | 0.00 | 0.00 | 100 | 953.9 |
| 20260507164154 | 51 | 135 | 6.0 | 9.0 | 0.00 | 0.00 | 0.00 | 100 | 953.9 |
| 20260507163951 | 51 | 146 | 4.0 | 7.0 | 0.00 | 0.00 | 0.00 | 100 | 954.0 |
| 20260507163748 | 51 | 157 | 2.0 | 7.0 | 0.00 | 0.00 | 0.00 | 100 | 953.9 |
| 20260507163648 | 51 | 172 | 2.0 | 5.0 | 0.00 | 0.00 | 0.00 | 100 | 953.9 |
| 20260507163546 | 51 | 181 | 2.0 | 7.0 | 0.00 | 0.00 | 0.00 | 100 | 953.9 |
| 20260507163342 | 52 | 203 | 2.0 | 7.0 | 0.00 | 0.00 | 0.00 | 100 | 953.9 |
| 20260507163139 | 52 | 247 | 1.0 | 6.0 | 0.00 | 0.00 | 0.00 | 100 | 953.9 |
| 20260507163025 | 52 | 0 | 1.0 | 6.0 | 0.00 | 0.00 | 0.00 | 100 | 953.8 |
| 20260507162923 | 52 | 246 | 1.0 | 7.0 | 0.00 | 0.00 | 0.00 | 100 | 953.8 |
| 20260507162720 | 52 | 241 | 1.0 | 7.0 | 0.00 | 0.00 | 0.00 | 100 | 953.9 |
| 20260507162517 | 51 | 236 | 1.0 | 6.0 | 0.00 | 0.00 | 0.00 | 100 | 953.9 |
| 20260507162416 | 51 | 232 | 2.0 | 6.0 | 0.00 | 0.00 | 0.00 | 100 | 953.9 |
| 20260507162314 | 51 | 231 | 1.0 | 6.0 | 0.00 | 0.00 | 0.00 | 100 | 953.9 |
| 20260507162110 | 51 | 237 | 1.0 | 5.0 | 0.00 | 0.00 | 0.00 | 100 | 954.0 |
| 20260507161907 | 51 | 238 | 1.0 | 9.0 | 0.00 | 0.00 | 0.00 | 100 | 954.0 |
| 20260507161806 | 51 | 236 | 2.0 | 9.0 | 0.00 | 0.00 | 0.00 | 100 | 954.0 |
| 20260507161704 | 51 | 232 | 2.0 | 9.0 | 0.00 | 0.00 | 0.00 | 100 | 954.0 |
| 20260507161501 | 51 | 223 | 2.0 | 9.0 | 0.00 | 0.00 | 0.00 | 100 | 954.0 |
| 20260507161258 | 51 | 222 | 2.0 | 8.0 | 0.00 | 0.00 | 0.00 | 100 | 954.0 |
| 20260507161158 | 51 | 223 | 2.0 | 8.0 | 0.00 | 0.00 | 0.00 | 100 | 954.2 |
| 20260507161055 | 51 | 239 | 1.0 | 8.0 | 0.00 | 0.00 | 0.00 | 100 | 954.1 |
| 20260507160852 | 51 | 288 | 2.0 | 5.0 | 0.00 | 0.00 | 0.00 | 100 | 954.1 |
| 20260507160649 | 51 | 281 | 3.0 | 7.0 | 0.00 | 0.00 | 0.00 | 100 | 954.2 |
| 20260507160548 | 51 | 282 | 3.0 | 7.0 | 0.00 | 0.00 | 0.00 | 100 | 954.3 |
| 20260507160446 | 51 | 264 | 4.0 | 7.0 | 0.00 | 0.00 | 0.00 | 100 | 954.3 |
| 20260507160243 | 51 | 260 | 4.0 | 10.0 | 0.00 | 0.00 | 0.00 | 100 | 954.3 |
| 20260507160040 | 51 | 251 | 4.0 | 10.0 | 0.00 | 0.00 | 0.00 | 100 | 954.3 |
| 20260507155939 | 51 | 231 | 3.0 | 10.0 | 0.00 | 0.00 | 0.00 | 100 | 954.4 |
| 20260507155837 | 51 | 222 | 2.0 | 10.0 | 0.00 | 0.00 | 0.00 | 100 | 954.3 |
| 20260507155634 | 51 | 236 | 4.0 | 14.0 | 0.00 | 0.00 | 0.00 | 100 | 954.3 |
| 20260507155431 | 52 | 250 | 7.0 | 18.0 | 0.00 | 0.00 | 0.00 | 100 | 954.4 |
| 20260507155330 | 52 | 261 | 8.0 | 19.0 | 0.00 | 0.00 | 0.00 | 100 | 954.4 |
| 20260507155228 | 52 | 262 | 9.0 | 18.0 | 0.00 | 0.00 | 0.00 | 100 | 954.4 |
| 20260507155024 | 53 | 262 | 10.0 | 18.0 | 0.00 | 0.00 | 0.00 | 100 | 954.3 |
| 20260507154821 | 53 | 254 | 8.0 | 18.0 | 0.00 | 0.00 | 0.00 | 100 | 954.4 |
| 20260507154720 | 53 | 252 | 6.0 | 15.0 | 0.00 | 0.00 | 0.00 | 100 | 954.4 |
| 20260507154617 | 53 | 252 | 4.0 | 13.0 | 0.00 | 0.00 | 0.00 | 100 | 954.3 |
| 20260507154414 | 53 | 255 | 3.0 | 10.0 | 0.00 | 0.00 | 0.00 | 100 | 954.2 |
| 20260507154211 | 53 | 262 | 3.0 | 6.0 | 0.00 | 0.00 | 0.00 | 100 | 954.1 |
| 20260507154111 | 53 | 273 | 4.0 | 6.0 | 0.00 | 0.00 | 0.00 | 100 | 954.0 |
| 20260507154010 | 53 | 283 | 4.0 | 6.0 | 0.00 | 0.00 | 0.00 | 100 | 954.0 |
| 20260507153805 | 53 | 289 | 4.0 | 6.0 | 0.00 | 0.00 | 0.00 | 100 | 953.9 |
| 20260507153602 | 53 | 290 | 3.0 | 5.0 | 0.00 | 0.00 | 0.00 | 100 | 953.9 |
| 20260507153502 | 53 | 284 | 3.0 | 5.0 | 0.00 | 0.00 | 0.00 | 100 | 953.9 |
| 20260507153359 | 53 | 277 | 3.0 | 5.0 | 0.00 | 0.00 | 0.00 | 100 | 953.9 |
| 20260507153156 | 53 | 264 | 2.0 | 5.0 | 0.00 | 0.00 | 0.00 | 100 | 953.9 |
| 20260507152953 | 53 | 0 | 1.0 | 5.0 | 0.00 | 0.00 | 0.00 | 100 | 954.0 |
| 20260507152852 | 53 | 0 | 1.0 | 4.0 | 0.00 | 0.00 | 0.00 | 100 | 953.9 |
| 20260507152750 | 53 | 0 | 1.0 | 4.0 | 0.00 | 0.00 | 0.00 | 100 | 953.9 |
| 20260507152547 | 53 | 0 | 1.0 | 4.0 | 0.00 | 0.00 | 0.00 | 100 | 953.9 |
| 20260507152344 | 53 | 295 | 1.0 | 4.0 | 0.00 | 0.00 | 0.00 | 100 | 953.9 |
| 20260507152243 | 53 | 307 | 2.0 | 8.0 | 0.00 | 0.00 | 0.00 | 100 | 954.0 |
| 20260507152140 | 53 | 316 | 3.0 | 8.0 | 0.00 | 0.00 | 0.00 | 100 | 953.9 |
| 20260507151937 | 53 | 339 | 4.0 | 10.0 | 0.00 | 0.00 | 0.00 | 100 | 953.9 |
| 20260507151734 | 53 | 343 | 6.0 | 10.0 | 0.00 | 0.00 | 0.00 | 100 | 953.8 |
| 20260507151633 | 53 | 342 | 7.0 | 12.0 | 0.00 | 0.00 | 0.00 | 100 | 953.9 |
| 20260507151531 | 53 | 343 | 8.0 | 14.0 | 0.00 | 0.00 | 0.00 | 100 | 953.9 |
| 20260507151328 | 54 | 323 | 11.0 | 23.0 | 0.00 | 0.00 | 0.00 | 100 | 953.8 |
| 20260507151125 | 54 | 308 | 13.0 | 23.0 | 0.00 | 0.00 | 0.00 | 100 | 953.8 |
| 20260507151024 | 55 | 304 | 13.0 | 23.0 | 0.00 | 0.00 | 0.00 | 100 | 953.7 |
| 20260507150921 | 55 | 306 | 12.0 | 16.0 | 0.00 | 0.00 | 0.00 | 100 | 953.8 |
| 20260507150719 | 55 | 302 | 12.0 | 16.0 | 0.00 | 0.00 | 0.00 | 100 | 953.7 |
| 20260507150516 | 55 | 300 | 8.0 | 14.0 | 0.00 | 0.00 | 0.00 | 100 | 953.8 |
| 20260507150414 | 55 | 299 | 7.0 | 14.0 | 0.00 | 0.00 | 0.00 | 100 | 953.8 |
| 20260507150312 | 55 | 299 | 5.0 | 14.0 | 0.00 | 0.00 | 0.00 | 100 | 953.7 |
| 20260507150109 | 56 | 295 | 3.0 | 5.0 | 0.00 | 0.00 | 0.00 | 100 | 953.7 |
| 20260507145907 | 57 | 278 | 1.0 | 3.0 | 0.00 | 0.00 | 0.00 | 100 | 953.7 |
| 20260507145805 | 57 | 0 | 0.0 | 3.0 | 0.00 | 0.00 | 0.00 | 100 | 953.7 |
| 20260507145703 | 57 | 0 | 0.0 | 1.0 | 0.00 | 0.00 | 0.00 | 100 | 953.6 |
| 20260507145459 | 57 | 0 | 0.0 | 2.0 | 0.00 | 0.00 | 0.00 | 100 | 953.6 |
| 20260507145256 | 57 | 0 | 0.0 | 2.0 | 0.00 | 0.00 | 0.00 | 100 | 953.5 |
| 20260507145156 | 57 | 0 | 0.0 | 4.0 | 0.00 | 0.00 | 0.00 | 100 | 953.5 |
| 20260507145053 | 57 | 0 | 0.0 | 4.0 | 0.00 | 0.00 | 0.00 | 100 | 953.6 |
| 20260507144850 | 57 | 191 | 0.0 | 4.0 | 0.00 | 0.00 | 0.00 | 100 | 953.5 |
| 20260507144646 | 57 | 0 | 0.0 | 2.0 | 0.00 | 0.00 | 0.00 | 100 | 953.6 |
| 20260507144546 | 57 | 0 | 0.0 | 2.0 | 0.00 | 0.00 | 0.00 | 100 | 953.6 |
| 20260507144444 | 57 | 0 | 0.0 | 2.0 | 0.00 | 0.00 | 0.00 | 100 | 953.5 |
| 20260507144241 | 57 | 0 | 0.0 | 2.0 | 0.00 | 0.00 | 0.00 | 100 | 953.5 |
| 20260507144038 | 57 | 0 | 0.0 | 2.0 | 0.00 | 0.00 | 0.00 | 100 | 953.5 |
| 20260507143937 | 57 | 0 | 1.0 | 5.0 | 0.00 | 0.00 | 0.00 | 100 | 953.5 |
| 20260507143835 | 57 | 0 | 0.0 | 5.0 | 0.00 | 0.00 | 0.00 | 100 | 953.5 |
| 20260507143633 | 57 | 0 | 1.0 | 5.0 | 0.00 | 0.00 | 0.00 | 100 | 953.4 |
| 20260507143429 | 57 | 0 | 1.0 | 3.0 | 0.00 | 0.00 | 0.00 | 100 | 953.6 |
| 20260507143328 | 57 | 0 | 1.0 | 3.0 | 0.00 | 0.00 | 0.00 | 100 | 953.6 |
| 20260507143226 | 57 | 220 | 1.0 | 4.0 | 0.00 | 0.00 | 0.00 | 100 | 953.6 |
| 20260507143023 | 56 | 0 | 1.0 | 4.0 | 0.00 | 0.00 | 0.00 | 100 | 953.5 |
| 20260507142819 | 56 | 0 | 1.0 | 4.0 | 0.00 | 0.00 | 0.00 | 100 | 953.6 |
| 20260507142719 | 56 | 0 | 1.0 | 3.0 | 0.00 | 0.00 | 0.00 | 100 | 953.6 |
| 20260507142617 | 56 | 0 | 1.0 | 3.0 | 0.00 | 0.00 | 0.00 | 100 | 953.5 |
| 20260507142414 | 56 | 0 | 0.0 | 3.0 | 0.00 | 0.00 | 0.00 | 100 | 953.6 |
| 20260507142211 | 55 | 0 | 1.0 | 3.0 | 0.00 | 0.00 | 0.00 | 100 | 953.6 |
| 20260507142109 | 55 | 0 | 1.0 | 5.0 | 0.00 | 0.00 | 0.00 | 100 | 953.6 |
| 20260507142007 | 55 | 0 | 1.0 | 5.0 | 0.00 | 0.00 | 0.00 | 100 | 953.6 |
| 20260507141804 | 55 | 184 | 1.0 | 6.0 | 0.00 | 0.00 | 0.00 | 100 | 953.6 |
| 20260507141602 | 55 | 0 | 1.0 | 6.0 | 0.00 | 0.00 | 0.00 | 100 | 953.6 |
| 20260507141501 | 55 | 0 | 1.0 | 4.0 | 0.00 | 0.00 | 0.00 | 100 | 953.6 |
| 20260507141358 | 55 | 0 | 0.0 | 4.0 | 0.00 | 0.00 | 0.00 | 100 | 953.6 |
| 20260507141155 | 55 | 0 | 0.0 | 3.0 | 0.00 | 0.00 | 0.00 | 100 | 953.6 |
| 20260507140952 | 55 | 0 | 1.0 | 3.0 | 0.00 | 0.00 | 0.00 | 100 | 953.5 |
| 20260507140851 | 55 | 0 | 1.0 | 3.0 | 0.00 | 0.00 | 0.00 | 100 | 953.5 |
| 20260507140749 | 55 | 0 | 1.0 | 3.0 | 0.00 | 0.00 | 0.00 | 100 | 953.5 |
| 20260507140546 | 55 | 122 | 2.0 | 4.0 | 0.00 | 0.00 | 0.00 | 100 | 953.5 |
| 20260507140342 | 55 | 143 | 2.0 | 5.0 | 0.00 | 0.00 | 0.00 | 100 | 953.6 |
| 20260507140242 | 55 | 149 | 2.0 | 5.0 | 0.00 | 0.00 | 0.00 | 100 | 953.5 |
| 20260507140052 | 55 | 148 | 3.0 | 5.0 | 0.00 | 0.00 | 0.00 | 100 | 953.8 |
| 20260507135849 | 56 | 124 | 3.0 | 4.0 | 0.00 | 0.00 | 0.00 | 100 | 953.7 |
| 20260507135748 | 56 | 122 | 2.0 | 4.0 | 0.00 | 0.00 | 0.00 | 100 | 953.7 |
| 20260507135646 | 56 | 120 | 2.0 | 4.0 | 0.00 | 0.00 | 0.00 | 100 | 953.7 |
| 20260507135443 | 56 | 128 | 1.0 | 3.0 | 0.00 | 0.00 | 0.00 | 100 | 953.8 |
| 20260507135240 | 57 | 163 | 1.0 | 2.0 | 0.00 | 0.00 | 0.00 | 100 | 953.8 |
| 20260507135139 | 57 | 173 | 1.0 | 3.0 | 0.00 | 0.00 | 0.00 | 100 | 953.8 |
| 20260507135034 | 57 | 169 | 1.0 | 3.0 | 0.00 | 0.00 | 0.00 | 100 | 953.8 |
| 20260507134830 | 57 | 147 | 1.0 | 3.0 | 0.00 | 0.00 | 0.00 | 100 | 953.7 |
| 20260507134627 | 57 | 0 | 1.0 | 2.0 | 0.00 | 0.00 | 0.00 | 100 | 953.7 |
| 20260507134513 | 57 | 159 | 1.0 | 2.0 | 0.00 | 0.00 | 0.00 | 100 | 953.8 |
| 20260507134410 | 57 | 157 | 1.0 | 2.0 | 0.00 | 0.00 | 0.00 | 100 | 953.8 |
| 20260507134207 | 57 | 162 | 1.0 | 2.0 | 0.00 | 0.00 | 0.00 | 100 | 953.8 |
| 20260507134005 | 57 | 163 | 1.0 | 2.0 | 0.00 | 0.00 | 0.00 | 100 | 953.7 |
| 20260507133904 | 57 | 136 | 1.0 | 2.0 | 0.00 | 0.00 | 0.00 | 100 | 953.7 |
| 20260507133801 | 57 | 132 | 1.0 | 2.0 | 0.00 | 0.00 | 0.00 | 100 | 953.7 |
| 20260507133558 | 57 | 138 | 2.0 | 3.0 | 0.00 | 0.00 | 0.00 | 100 | 953.6 |
| 20260507133355 | 57 | 104 | 1.0 | 3.0 | 0.00 | 0.00 | 0.00 | 100 | 953.6 |
| 20260507133254 | 57 | 75 | 1.0 | 2.0 | 0.00 | 0.00 | 0.00 | 100 | 953.6 |
| 20260507133152 | 57 | 68 | 1.0 | 3.0 | 0.00 | 0.00 | 0.00 | 100 | 953.7 |
| 20260507132949 | 57 | 98 | 2.0 | 5.0 | 0.00 | 0.00 | 0.00 | 100 | 953.6 |
| 20260507132747 | 57 | 141 | 3.0 | 6.0 | 0.00 | 0.00 | 0.00 | 100 | 953.8 |
| 20260507132646 | 57 | 147 | 4.0 | 6.0 | 0.00 | 0.00 | 0.00 | 100 | 953.8 |
| 20260507132544 | 57 | 150 | 3.0 | 6.0 | 0.00 | 0.00 | 0.00 | 100 | 953.7 |
| 20260507132341 | 57 | 132 | 2.0 | 6.0 | 0.00 | 0.00 | 0.00 | 100 | 953.7 |
| 20260507132137 | 57 | 74 | 2.0 | 6.0 | 0.00 | 0.00 | 0.00 | 100 | 953.6 |
| 20260507132037 | 57 | 71 | 3.0 | 6.0 | 0.00 | 0.00 | 0.00 | 100 | 953.7 |
| 20260507131934 | 57 | 63 | 3.0 | 7.0 | 0.00 | 0.00 | 0.00 | 100 | 953.7 |
| 20260507131732 | 57 | 43 | 4.0 | 7.0 | 0.00 | 0.00 | 0.00 | 100 | 953.7 |
| 20260507131529 | 58 | 30 | 4.0 | 8.0 | 0.00 | 0.00 | 0.00 | 100 | 953.7 |
| 20260507131429 | 58 | 28 | 4.0 | 8.0 | 0.00 | 0.00 | 0.00 | 100 | 953.7 |
| 20260507131327 | 58 | 29 | 4.0 | 8.0 | 0.00 | 0.00 | 0.00 | 100 | 953.7 |
| 20260507131123 | 58 | 30 | 4.0 | 6.0 | 0.00 | 0.00 | 0.00 | 100 | 953.5 |
| 20260507130920 | 58 | 26 | 3.0 | 6.0 | 0.00 | 0.00 | 0.00 | 100 | 953.6 |
| 20260507130819 | 58 | 30 | 4.0 | 6.0 | 0.00 | 0.00 | 0.00 | 100 | 953.5 |
| 20260507130717 | 58 | 34 | 4.0 | 6.0 | 0.00 | 0.00 | 0.00 | 100 | 953.5 |
| 20260507130514 | 59 | 31 | 4.0 | 6.0 | 0.00 | 0.00 | 0.00 | 100 | 953.5 |
| 20260507130311 | 59 | 24 | 3.0 | 6.0 | 0.00 | 0.00 | 0.00 | 100 | 953.5 |
| 20260507130210 | 59 | 13 | 3.0 | 6.0 | 0.00 | 0.00 | 0.00 | 100 | 953.5 |
| 20260507130107 | 59 | 19 | 3.0 | 6.0 | 0.00 | 0.00 | 0.00 | 100 | 953.5 |
| 20260507125904 | 59 | 21 | 3.0 | 6.0 | 0.00 | 0.00 | 0.00 | 100 | 953.6 |
| 20260507125701 | 59 | 31 | 3.0 | 5.0 | 0.00 | 0.00 | 0.00 | 100 | 953.5 |
| 20260507125600 | 59 | 32 | 3.0 | 4.0 | 0.00 | 0.00 | 0.00 | 100 | 953.5 |
| 20260507125458 | 59 | 40 | 3.0 | 5.0 | 0.00 | 0.00 | 0.00 | 100 | 953.5 |
| 20260507125254 | 59 | 53 | 3.0 | 6.0 | 0.00 | 0.00 | 0.00 | 100 | 953.6 |
| 20260507125051 | 59 | 68 | 3.0 | 6.0 | 0.00 | 0.00 | 0.00 | 100 | 953.5 |
| 20260507124950 | 59 | 76 | 3.0 | 6.0 | 0.00 | 0.00 | 0.00 | 100 | 953.5 |
| 20260507124844 | 59 | 66 | 3.0 | 6.0 | 0.00 | 0.00 | 0.00 | 100 | 953.5 |
| 20260507124642 | 59 | 62 | 5.0 | 8.0 | 0.00 | 0.00 | 0.00 | 100 | 953.5 |
| 20260507124439 | 59 | 57 | 5.0 | 8.0 | 0.00 | 0.00 | 0.00 | 100 | 953.5 |
| 20260507124338 | 59 | 57 | 5.0 | 7.0 | 0.00 | 0.00 | 0.00 | 100 | 953.5 |
| 20260507124237 | 59 | 55 | 4.0 | 7.0 | 0.00 | 0.00 | 0.00 | 100 | 953.6 |
| 20260507124033 | 60 | 65 | 3.0 | 5.0 | 0.00 | 0.00 | 0.00 | 100 | 953.6 |
| 20260507123831 | 60 | 50 | 3.0 | 5.0 | 0.00 | 0.00 | 0.00 | 100 | 953.6 |
| 20260507123731 | 60 | 48 | 2.0 | 5.0 | 0.00 | 0.00 | 0.00 | 100 | 953.6 |
| 20260507123628 | 60 | 48 | 3.0 | 6.0 | 0.00 | 0.00 | 0.00 | 100 | 953.5 |
| 20260507123425 | 60 | 47 | 4.0 | 6.0 | 0.00 | 0.00 | 0.00 | 100 | 953.5 |
| 20260507123222 | 60 | 47 | 5.0 | 8.0 | 0.00 | 0.00 | 0.00 | 100 | 953.4 |
| 20260507123121 | 59 | 50 | 5.0 | 8.0 | 0.00 | 0.00 | 0.00 | 100 | 953.4 |
| 20260507123019 | 59 | 55 | 5.0 | 8.0 | 0.00 | 0.00 | 0.00 | 100 | 953.5 |
| 20260507122815 | 60 | 80 | 4.0 | 7.0 | 0.00 | 0.00 | 0.00 | 100 | 953.5 |
| 20260507122612 | 60 | 111 | 4.0 | 7.0 | 0.00 | 0.00 | 0.00 | 100 | 953.5 |
| 20260507122512 | 60 | 128 | 4.0 | 8.0 | 0.00 | 0.00 | 0.00 | 100 | 953.4 |
| 20260507122410 | 60 | 129 | 4.0 | 8.0 | 0.00 | 0.00 | 0.00 | 100 | 953.4 |
| 20260507122206 | 60 | 107 | 3.0 | 8.0 | 0.00 | 0.00 | 0.00 | 100 | 953.4 |
| 20260507122004 | 61 | 65 | 3.0 | 7.0 | 0.00 | 0.00 | 0.00 | 100 | 953.3 |
| 20260507121902 | 61 | 60 | 3.0 | 7.0 | 0.00 | 0.00 | 0.00 | 100 | 953.3 |
| 20260507121800 | 61 | 51 | 3.0 | 4.0 | 0.00 | 0.00 | 0.00 | 100 | 953.4 |
| 20260507121557 | 61 | 19 | 3.0 | 5.0 | 0.00 | 0.00 | 0.00 | 100 | 953.3 |
| 20260507121354 | 60 | 7 | 4.0 | 5.0 | 0.00 | 0.00 | 0.00 | 100 | 953.3 |
| 20260507121253 | 60 | 8 | 4.0 | 6.0 | 0.00 | 0.00 | 0.00 | 100 | 953.3 |
| 20260507121151 | 60 | 1 | 4.0 | 6.0 | 0.00 | 0.00 | 0.00 | 100 | 953.3 |
| 20260507120948 | 60 | 357 | 4.0 | 6.0 | 0.00 | 0.00 | 0.00 | 100 | 953.4 |
| 20260507120745 | 60 | 357 | 5.0 | 7.0 | 0.00 | 0.00 | 0.00 | 100 | 953.4 |
| 20260507120645 | 60 | 354 | 5.0 | 7.0 | 0.00 | 0.00 | 0.00 | 100 | 953.3 |
| 20260507120542 | 60 | 349 | 5.0 | 7.0 | 0.00 | 0.00 | 0.00 | 100 | 953.3 |
| 20260507120339 | 60 | 345 | 6.0 | 8.0 | 0.00 | 0.00 | 0.00 | 100 | 953.4 |
| 20260507120136 | 60 | 345 | 6.0 | 8.0 | 0.00 | 0.00 | 0.00 | 100 | 953.4 |
| 20260507120036 | 60 | 341 | 6.0 | 8.0 | 0.00 | 0.00 | 0.00 | 100 | 953.4 |
| 20260507115934 | 60 | 339 | 5.0 | 7.0 | 0.00 | 0.00 | 0.00 | 100 | 953.4 |
| 20260507115730 | 61 | 330 | 5.0 | 8.0 | 0.00 | 0.00 | 0.00 | 100 | 953.4 |
| 20260507115527 | 61 | 332 | 5.0 | 8.0 | 0.00 | 0.00 | 0.00 | 100 | 953.4 |